M I D A S
Marine Information and Data Acquisition System
Tripno 1538 of the Zeeleeuw from 2008-08-18 07:18:26 to 2008-08-18 15:57:06
Back to CruiseResearch ActivitiesStationsMapUnderway DataData graphs

EquipmentUnitsComment
TimeDGPSUTC
LatitudeDGPSDM.mWGS84
LongitudeDGPSDM.mWGS84
TemperatureSBE03/SBE38deg celciusITS90
ConductivitySBE21S/mITS90
SalinitySBE21 Practical Salinity Units
ChlorophylAChelsea fluorimeterg/lCalibrated in Aceton
Missing or incorrect values are displayed as -999
Sea surface data collected by the RV Zeeleeuw from 2008-08-18 07:16:45 to 2008-08-18 15:57:41
                                                                                    Next 1000 lines
Time Latitude Longitude Temperature Conductivity Salinity ChlorophylA
2008-08-18 07:16:55 51°13.624 2°56.046 20.1902 0.185881 1.054813 -1.139864
2008-08-18 07:17:00 51°13.625 2°56.044 20.1786 0.185881 1.054832 -1.139864
2008-08-18 07:17:05 51°13.626 2°56.041 20.1813 0.185881 1.054851 -1.139864
2008-08-18 07:17:10 51°13.627 2°56.037 20.2028 0.185881 1.054869 -1.139864
2008-08-18 07:17:15 51°13.629 2°56.033 20.1928 0.185881 1.054869 -1.139864
2008-08-18 07:17:21 51°13.631 2°56.028 20.2009 0.185881 1.054869 -1.139864
2008-08-18 07:17:25 51°13.632 2°56.023 20.2051 0.185881 1.054869 -1.139864
2008-08-18 07:17:30 51°13.633 2°56.018 20.206 0.185881 1.054888 -1.139864
2008-08-18 07:17:36 51°13.635 2°56.011 20.2076 0.185881 1.054907 -1.139864
2008-08-18 07:17:41 51°13.637 2°56.005 20.2153 0.185881 1.054907 -1.139864
2008-08-18 07:17:46 51°13.639 2°55.998 20.2216 0.185881 1.054907 -1.139864
2008-08-18 07:17:50 51°13.641 2°55.993 20.2201 0.185881 1.054926 -1.139864
2008-08-18 07:17:55 51°13.643 2°55.986 20.2104 0.185881 1.054926 -1.139864
2008-08-18 07:18:01 51°13.645 2°55.978 20.219 0.185881 1.054926 -1.139864
2008-08-18 07:18:06 51°13.646 2°55.97 20.2153 0.185881 1.054964 -1.139864
2008-08-18 07:18:10 51°13.648 2°55.964 20.2201 0.185881 1.054964 -1.139864
2008-08-18 07:18:15 51°13.65 2°55.956 20.2214 0.185881 1.054964 -1.139864
2008-08-18 07:18:21 51°13.652 2°55.947 20.2205 0.185881 1.054983 -1.139864
2008-08-18 07:18:26 51°13.653 2°55.939 20.2209 0.185881 1.055021 -1.139864
2008-08-18 07:18:30 51°13.655 2°55.932 20.2196 0.185881 1.055021 -1.139864
2008-08-18 07:18:35 51°13.657 2°55.924 20.2261 0.185881 1.05504 -1.139864
2008-08-18 07:18:40 51°13.659 2°55.915 20.2258 0.185881 1.055059 -1.139864
2008-08-18 07:18:46 51°13.661 2°55.905 20.2302 0.185881 1.055059 -1.139864
2008-08-18 07:18:51 51°13.664 2°55.896 20.2179 0.185881 1.055059 -1.139864
2008-08-18 07:18:56 51°13.667 2°55.887 20.2248 0.185881 1.055097 -1.139864
2008-08-18 07:19:00 51°13.669 2°55.88 20.2289 0.185881 1.055097 -1.139864
2008-08-18 07:19:05 51°13.672 2°55.871 20.2284 0.185881 1.055097 -1.139864
2008-08-18 07:19:11 51°13.676 2°55.861 20.2289 0.185881 1.055116 -1.139864
2008-08-18 07:19:16 51°13.679 2°55.852 20.2311 0.185881 1.055116 -1.139864
2008-08-18 07:19:21 51°13.683 2°55.844 20.2318 0.185881 1.055116 -1.139864
2008-08-18 07:19:25 51°13.686 2°55.837 20.2328 0.185881 1.055135 -1.139864
2008-08-18 07:19:31 51°13.69 2°55.827 20.2352 0.185881 1.055135 -1.139864
2008-08-18 07:19:36 51°13.694 2°55.819 20.2361 0.185881 1.055154 -1.139864
2008-08-18 07:19:41 51°13.699 2°55.811 20.2326 0.185881 1.055154 -1.139864
2008-08-18 07:19:46 51°13.703 2°55.803 20.2253 0.185881 1.055154 -1.139864
2008-08-18 07:19:50 51°13.707 2°55.796 20.2166 0.185881 1.055154 -1.139864
2008-08-18 07:19:56 51°13.712 2°55.786 20.218 0.185881 1.055173 -1.139864
2008-08-18 07:20:01 51°13.717 2°55.778 20.2224 0.185881 1.055173 -1.139864
2008-08-18 07:20:06 51°13.721 2°55.77 20.2228 0.185778 1.054578 -1.139864
2008-08-18 07:20:10 51°13.725 2°55.763 20.2242 0.185778 1.054597 -1.139864
2008-08-18 07:20:15 51°13.73 2°55.755 20.2228 0.185778 1.054597 -1.139864
2008-08-18 07:20:21 51°13.736 2°55.746 20.2266 0.185778 1.054616 -1.139864
2008-08-18 07:20:26 51°13.741 2°55.738 20.2258 0.185778 1.054635 -1.139864
2008-08-18 07:20:30 51°13.745 2°55.732 20.2329 0.185778 1.054654 -1.139864
2008-08-18 07:20:35 51°13.75 2°55.725 20.2338 0.185778 1.054654 -1.139864
2008-08-18 07:20:41 51°13.757 2°55.716 20.2356 0.185778 1.054673 -1.139864
2008-08-18 07:20:46 51°13.762 2°55.709 20.2338 0.185778 1.054673 -1.139864
2008-08-18 07:20:51 51°13.768 2°55.701 20.2369 0.185778 1.054692 -1.139864
2008-08-18 07:20:55 51°13.772 2°55.696 20.2415 0.185778 1.054711 -1.139864
2008-08-18 07:21:00 51°13.778 2°55.689 20.2467 0.185778 1.054711 -1.139864
2008-08-18 07:21:06 51°13.785 2°55.681 20.2437 0.185778 1.054711 -1.139864
2008-08-18 07:21:10 51°13.79 2°55.675 20.2436 0.185778 1.05473 -1.139864
2008-08-18 07:21:15 51°13.796 2°55.669 20.2518 0.185778 1.05473 -1.139864
2008-08-18 07:21:20 51°13.802 2°55.662 20.2542 0.185778 1.05473 -1.139864
2008-08-18 07:21:25 51°13.808 2°55.656 20.2577 0.185778 1.054749 -1.139864
2008-08-18 07:21:31 51°13.815 2°55.65 20.2523 0.185778 1.054749 -1.139864
2008-08-18 07:21:36 51°13.821 2°55.645 20.2576 0.185778 1.054749 -1.139864
2008-08-18 07:21:41 51°13.827 2°55.64 20.2494 0.185778 1.054768 -1.139864
2008-08-18 07:21:45 51°13.832 2°55.638 20.2562 0.185778 1.054768 -1.139864
2008-08-18 07:21:51 51°13.839 2°55.634 20.2589 0.185778 1.054768 -1.139864
2008-08-18 07:21:56 51°13.845 2°55.631 20.2549 0.185778 1.054787 -1.139864
2008-08-18 07:22:01 51°13.851 2°55.63 20.2584 0.185778 1.054806 -1.139864
2008-08-18 07:22:06 51°13.857 2°55.629 20.2541 0.185778 1.054825 -1.139864
2008-08-18 07:22:10 51°13.862 2°55.628 20.2628 0.185778 1.054844 -1.139864
2008-08-18 07:22:16 51°13.87 2°55.629 20.2614 0.185778 1.054844 -1.139864
2008-08-18 07:22:21 51°13.876 2°55.63 20.2646 0.185778 1.054863 -1.139864
2008-08-18 07:22:26 51°13.882 2°55.632 20.2555 0.185778 1.054882 -1.139864
2008-08-18 07:22:30 51°13.886 2°55.633 20.2603 0.185778 1.054901 -1.139864
2008-08-18 07:22:35 51°13.892 2°55.636 20.2612 0.185778 1.05492 -1.139864
2008-08-18 07:22:41 51°13.899 2°55.64 20.2631 0.185778 1.05492 -1.139864
2008-08-18 07:22:46 51°13.904 2°55.643 20.2739 0.185778 1.05492 -1.139864
2008-08-18 07:22:50 51°13.908 2°55.646 20.282 0.185778 1.054938 -1.139864
2008-08-18 07:22:55 51°13.912 2°55.65 20.269 0.185778 1.054957 -1.139864
2008-08-18 07:23:01 51°13.917 2°55.654 20.2787 0.185778 1.054976 -1.139864
2008-08-18 07:23:06 51°13.921 2°55.658 20.2808 0.185778 1.054976 -1.139864
2008-08-18 07:23:11 51°13.924 2°55.661 20.2784 0.185778 1.054995 -1.139864
2008-08-18 07:23:15 51°13.926 2°55.662 20.2809 0.185778 1.054995 -1.139864
2008-08-18 07:23:20 51°13.928 2°55.663 20.304 0.185778 1.055014 -1.139864
2008-08-18 07:23:25 51°13.929 2°55.663 20.3065 0.185778 1.055014 -1.139864
2008-08-18 07:23:30 51°13.929 2°55.661 20.2951 0.185778 1.055014 -1.139864
2008-08-18 07:23:34 51°13.929 2°55.658 20.2615 0.185778 1.055014 -1.139864
2008-08-18 07:23:39 51°13.929 2°55.654 20.2322 0.185778 1.055014 -1.139864
2008-08-18 07:23:44 51°13.929 2°55.648 20.2207 0.185778 1.055014 -1.139864
2008-08-18 07:23:49 51°13.93 2°55.642 20.2601 0.185778 1.055033 -1.139864
2008-08-18 07:23:54 51°13.932 2°55.635 20.2349 0.185778 1.055052 -1.139864
2008-08-18 07:23:58 51°13.933 2°55.629 20.2642 0.185778 1.055071 -1.139864
2008-08-18 07:24:03 51°13.936 2°55.621 20.2809 0.185778 1.05509 -1.139864
2008-08-18 07:24:08 51°13.94 2°55.613 20.2848 0.185778 1.055128 -1.139864
2008-08-18 07:24:13 51°13.944 2°55.604 20.2815 0.185778 1.055128 -1.139864
2008-08-18 07:24:18 51°13.95 2°55.595 20.2806 0.185778 1.055166 -1.139864
2008-08-18 07:24:22 51°13.954 2°55.587 20.2819 0.185778 1.055166 -1.139864
2008-08-18 07:24:27 51°13.961 2°55.578 20.2805 0.185778 1.055166 -1.139864
2008-08-18 07:24:32 51°13.967 2°55.568 20.2802 0.185778 1.055147 -1.139864
2008-08-18 07:24:37 51°13.975 2°55.558 20.2798 0.185778 1.055128 -1.139864
2008-08-18 07:24:42 51°13.982 2°55.549 20.2861 0.185778 1.055128 -1.139864
2008-08-18 07:24:47 51°13.991 2°55.54 20.2811 0.185778 1.055147 -1.139864
2008-08-18 07:24:52 51°13.999 2°55.53 20.2805 0.185778 1.055128 -1.139864
2008-08-18 07:24:57 51°14.008 2°55.52 20.2868 0.185778 1.055128 -1.139864
2008-08-18 07:25:02 51°14.017 2°55.511 20.287 0.185675 1.054514 -1.139864
2008-08-18 07:25:07 51°14.026 2°55.502 20.2884 0.185675 1.054533 -1.139864
2008-08-18 07:25:12 51°14.035 2°55.492 20.282 0.185675 1.054533 -1.139864
2008-08-18 07:25:17 51°14.045 2°55.482 20.2861 0.185675 1.054533 -1.139864
2008-08-18 07:25:22 51°14.054 2°55.473 20.2802 0.185675 1.054552 -1.139864
2008-08-18 07:25:27 51°14.064 2°55.464 20.2787 0.185675 1.054552 -1.139864
2008-08-18 07:25:31 51°14.072 2°55.456 20.274 0.185675 1.054571 -1.139864
2008-08-18 07:25:37 51°14.083 2°55.445 20.2749 0.185675 1.054571 -1.139864
2008-08-18 07:25:42 51°14.093 2°55.436 20.2758 0.185675 1.054571 -1.139864
2008-08-18 07:25:47 51°14.103 2°55.427 20.2807 0.185675 1.05459 -1.139864
2008-08-18 07:25:52 51°14.113 2°55.418 20.2823 0.185675 1.05459 -1.139864
2008-08-18 07:25:57 51°14.123 2°55.409 20.2831 0.185675 1.054628 -1.10504
2008-08-18 07:26:02 51°14.133 2°55.399 20.2845 0.185675 1.054628 -1.139864
2008-08-18 07:26:07 51°14.142 2°55.39 20.2856 0.185675 1.054647 -1.139864
2008-08-18 07:26:12 51°14.152 2°55.38 20.2848 0.185675 1.054647 -1.139864
2008-08-18 07:26:17 51°14.162 2°55.371 20.2865 0.185675 1.054628 -1.139864
2008-08-18 07:26:22 51°14.172 2°55.361 20.299 0.185675 1.054647 -1.139864
2008-08-18 07:26:27 51°14.181 2°55.351 20.3022 0.185675 1.054647 -1.139864
2008-08-18 07:26:32 51°14.191 2°55.341 20.295 0.185675 1.054666 -1.139864
2008-08-18 07:26:37 51°14.2 2°55.33 20.3058 0.185675 1.054685 -1.139864
2008-08-18 07:26:42 51°14.21 2°55.319 20.3099 0.185675 1.054685 -1.139864
2008-08-18 07:26:47 51°14.219 2°55.308 20.3126 0.185675 1.054704 -1.139864
2008-08-18 07:26:52 51°14.227 2°55.295 20.3063 0.185675 1.054723 -1.139864
2008-08-18 07:26:57 51°14.236 2°55.283 20.3026 0.185675 1.054742 -1.139864
2008-08-18 07:27:02 51°14.245 2°55.27 20.2979 0.185675 1.054761 -1.139864
2008-08-18 07:27:07 51°14.253 2°55.257 20.2975 0.185675 1.05478 -1.139864
2008-08-18 07:27:11 51°14.26 2°55.247 20.2985 0.185675 1.05478 -1.139864
2008-08-18 07:27:17 51°14.27 2°55.23 20.2947 0.185675 1.05478 -1.139864
2008-08-18 07:27:22 51°14.278 2°55.217 20.3004 0.185675 1.05478 -1.139864
2008-08-18 07:27:27 51°14.286 2°55.203 20.2947 0.185675 1.05478 -1.139864
2008-08-18 07:27:31 51°14.292 2°55.192 20.2958 0.185675 1.05478 -1.139864
2008-08-18 07:27:37 51°14.302 2°55.175 20.297 0.185675 1.05478 -1.139864
2008-08-18 07:27:42 51°14.309 2°55.161 20.3027 0.185675 1.05478 -1.139864
2008-08-18 07:27:47 51°14.317 2°55.146 20.3011 0.185675 1.054799 -1.139864
2008-08-18 07:27:52 51°14.325 2°55.132 20.3062 0.185675 1.054799 -1.139864
2008-08-18 07:27:57 51°14.332 2°55.117 20.294 0.185675 1.054818 -1.139864
2008-08-18 07:28:02 51°14.339 2°55.102 20.3196 0.185675 1.054818 -1.139864
2008-08-18 07:28:07 51°14.346 2°55.087 20.3069 0.185675 1.054837 -1.139864
2008-08-18 07:28:12 51°14.353 2°55.072 20.3321 0.185675 1.054837 -1.139864
2008-08-18 07:28:17 51°14.359 2°55.056 20.3442 0.185675 1.054837 -1.139864
2008-08-18 07:28:22 51°14.365 2°55.041 20.3505 0.185675 1.054875 -1.139864
2008-08-18 07:28:27 51°14.371 2°55.024 20.3429 0.185675 1.054875 -1.139864
2008-08-18 07:28:32 51°14.376 2°55.008 20.3477 0.185675 1.054913 -1.139864
2008-08-18 07:28:37 51°14.379 2°54.991 20.3498 0.185675 1.054913 -1.139864
2008-08-18 07:28:42 51°14.383 2°54.973 20.3611 0.185675 1.054913 -1.139864
2008-08-18 07:28:47 51°14.386 2°54.955 20.3646 0.185675 1.054913 -1.139864
2008-08-18 07:28:52 51°14.388 2°54.935 20.3333 0.185675 1.054932 -1.139864
2008-08-18 07:28:57 51°14.389 2°54.915 20.3228 0.185675 1.054951 -1.139864
2008-08-18 07:29:02 51°14.389 2°54.894 20.3254 0.185675 1.054951 -1.139864
2008-08-18 07:29:07 51°14.39 2°54.872 20.3423 0.185675 1.054951 -1.139864
2008-08-18 07:29:12 51°14.39 2°54.85 20.336 0.185675 1.054951 -1.139864
2008-08-18 07:29:17 51°14.389 2°54.827 20.317 0.185675 1.054951 -1.139864
2008-08-18 07:29:22 51°14.388 2°54.804 20.3165 0.185675 1.054951 -1.139864
2008-08-18 07:29:27 51°14.386 2°54.781 20.3256 0.185675 1.05497 -1.139864
2008-08-18 07:29:32 51°14.384 2°54.757 20.351 0.185675 1.05497 -1.139864
2008-08-18 07:29:37 51°14.382 2°54.734 20.3245 0.185675 1.054989 -1.139864
2008-08-18 07:29:42 51°14.379 2°54.71 20.324 0.185675 1.054989 -1.139864
2008-08-18 07:29:47 51°14.376 2°54.686 20.3361 0.185675 1.054989 -1.139864
2008-08-18 07:29:52 51°14.373 2°54.662 20.3592 0.185675 1.055008 -1.139864
2008-08-18 07:29:57 51°14.369 2°54.638 20.3444 0.185675 1.055027 -1.139864
2008-08-18 07:30:02 51°14.364 2°54.615 20.3485 0.185675 1.055027 -1.139864
2008-08-18 07:30:07 51°14.359 2°54.591 20.3453 0.185675 1.055027 -1.139864
2008-08-18 07:30:12 51°14.354 2°54.568 20.3412 0.185675 1.055027 -1.139864
2008-08-18 07:30:17 51°14.348 2°54.546 20.3217 0.185675 1.055046 -1.139864
2008-08-18 07:30:22 51°14.343 2°54.522 20.3453 0.185675 1.055046 -1.139864
2008-08-18 07:30:27 51°14.337 2°54.499 20.3363 0.185675 1.055046 -1.139864
2008-08-18 07:30:32 51°14.331 2°54.476 20.3545 0.185675 1.055046 -1.139864
2008-08-18 07:30:37 51°14.326 2°54.453 20.3462 0.185675 1.055046 -1.139864
2008-08-18 07:30:42 51°14.321 2°54.429 20.346 0.185675 1.055046 -1.139864
2008-08-18 07:30:47 51°14.316 2°54.405 20.3474 0.185675 1.055084 -1.139864
2008-08-18 07:30:52 51°14.31 2°54.381 20.36 0.185675 1.055084 -1.139864
2008-08-18 07:30:57 51°14.304 2°54.357 20.354 0.185675 1.055103 -1.10504
2008-08-18 07:31:02 51°14.299 2°54.334 20.3522 0.185675 1.055122 -1.139864
2008-08-18 07:31:07 51°14.293 2°54.31 20.3563 0.185675 1.055122 -1.139864
2008-08-18 07:31:12 51°14.287 2°54.286 20.3397 0.185675 1.055122 -1.139864
2008-08-18 07:31:17 51°14.282 2°54.263 20.358 0.185675 1.055141 -1.139864
2008-08-18 07:31:22 51°14.276 2°54.239 20.3391 0.185572 1.054526 -1.139864
2008-08-18 07:31:27 51°14.27 2°54.215 20.361 0.185572 1.054545 -1.139864
2008-08-18 07:31:31 51°14.265 2°54.196 20.3615 0.185572 1.054564 -1.139864
2008-08-18 07:31:37 51°14.258 2°54.168 20.3531 0.185572 1.054564 -1.139864
2008-08-18 07:31:42 51°14.252 2°54.144 20.3604 0.185572 1.054564 -1.139864
2008-08-18 07:31:47 51°14.246 2°54.121 20.3552 0.185572 1.054583 -1.139864
2008-08-18 07:31:52 51°14.239 2°54.097 20.3507 0.185572 1.054583 -1.139864
2008-08-18 07:31:57 51°14.233 2°54.074 20.3608 0.185572 1.054583 -1.139864
2008-08-18 07:32:02 51°14.226 2°54.051 20.3599 0.185572 1.054583 -1.139864
2008-08-18 07:32:07 51°14.22 2°54.027 20.364 0.185572 1.054583 -1.139864
2008-08-18 07:32:12 51°14.213 2°54.004 20.3545 0.185572 1.054583 -1.139864
2008-08-18 07:32:17 51°14.207 2°53.981 20.3658 0.185572 1.054602 -1.139864
2008-08-18 07:32:22 51°14.2 2°53.958 20.3473 0.185572 1.054602 -1.139864
2008-08-18 07:32:27 51°14.194 2°53.934 20.3618 0.185572 1.054621 -1.139864
2008-08-18 07:32:31 51°14.189 2°53.915 20.3625 0.185572 1.05464 -1.139864
2008-08-18 07:32:37 51°14.181 2°53.887 20.3698 0.185572 1.054659 -1.139864
2008-08-18 07:32:42 51°14.175 2°53.863 20.356 0.185572 1.054659 -1.139864
2008-08-18 07:32:47 51°14.168 2°53.84 20.3703 0.185572 1.054659 -1.139864
2008-08-18 07:32:52 51°14.161 2°53.816 20.3691 0.185572 1.054678 -1.139864
2008-08-18 07:32:57 51°14.154 2°53.793 20.3767 0.185572 1.054678 -1.139864
2008-08-18 07:33:02 51°14.148 2°53.769 20.3607 0.185572 1.054716 -1.139864
2008-08-18 07:33:07 51°14.141 2°53.746 20.3704 0.185572 1.054697 -1.139864
2008-08-18 07:33:12 51°14.134 2°53.722 20.3773 0.185572 1.054697 -1.139864
2008-08-18 07:33:17 51°14.127 2°53.699 20.3746 0.185572 1.054716 -1.139864
2008-08-18 07:33:22 51°14.12 2°53.675 20.3766 0.185572 1.054716 -1.139864
2008-08-18 07:33:27 51°14.113 2°53.652 20.373 0.185572 1.054716 -1.139864
2008-08-18 07:33:31 51°14.107 2°53.633 20.364 0.185572 1.054735 -1.139864
2008-08-18 07:33:37 51°14.098 2°53.605 20.3784 0.185572 1.054735 -1.139864
2008-08-18 07:33:42 51°14.091 2°53.582 20.3721 0.185572 1.054735 -1.139864
2008-08-18 07:33:47 51°14.084 2°53.559 20.3691 0.185572 1.054735 -1.139864
2008-08-18 07:33:52 51°14.077 2°53.535 20.3733 0.185572 1.054754 -1.139864
2008-08-18 07:33:57 51°14.07 2°53.511 20.3692 0.185572 1.054773 -1.139864
2008-08-18 07:34:02 51°14.063 2°53.488 20.3935 0.185572 1.054773 -1.139864
2008-08-18 07:34:07 51°14.056 2°53.464 20.3896 0.185572 1.054792 -1.139864
2008-08-18 07:34:12 51°14.05 2°53.44 20.3868 0.185572 1.054792 -1.139864
2008-08-18 07:34:17 51°14.043 2°53.417 20.3866 0.185572 1.054811 -1.139864
2008-08-18 07:34:22 51°14.036 2°53.393 20.3785 0.185572 1.054811 -1.139864
2008-08-18 07:34:27 51°14.029 2°53.369 20.3875 0.185572 1.054811 -1.139864
2008-08-18 07:34:32 51°14.023 2°53.345 20.3889 0.185572 1.05483 -1.139864
2008-08-18 07:34:37 51°14.016 2°53.321 20.3781 0.185572 1.05483 -1.139864
2008-08-18 07:34:42 51°14.01 2°53.297 20.3803 0.185572 1.05483 -1.139864
2008-08-18 07:34:47 51°14.003 2°53.274 20.3969 0.185572 1.054849 -1.139864
2008-08-18 07:34:52 51°13.996 2°53.25 20.3815 0.185572 1.054868 -1.139864
2008-08-18 07:34:57 51°13.989 2°53.226 20.386 0.185572 1.054868 -1.139864
2008-08-18 07:35:02 51°13.982 2°53.202 20.3884 0.185572 1.054868 -1.139864
2008-08-18 07:35:07 51°13.975 2°53.179 20.3913 0.185572 1.054887 -1.139864
2008-08-18 07:35:12 51°13.968 2°53.155 20.386 0.185572 1.054887 -1.139864
2008-08-18 07:35:17 51°13.961 2°53.131 20.3845 0.185572 1.054887 -1.139864
2008-08-18 07:35:22 51°13.954 2°53.107 20.3889 0.185572 1.054887 -1.139864
2008-08-18 07:35:27 51°13.947 2°53.083 20.3847 0.185572 1.054906 -1.10504
2008-08-18 07:35:32 51°13.941 2°53.06 20.3916 0.185572 1.054906 -1.139864
2008-08-18 07:35:37 51°13.934 2°53.036 20.3885 0.185572 1.054925 -1.139864
2008-08-18 07:35:42 51°13.927 2°53.012 20.4003 0.185572 1.054925 -1.139864
2008-08-18 07:35:47 51°13.92 2°52.988 20.3882 0.185572 1.054944 -1.139864
2008-08-18 07:35:52 51°13.913 2°52.964 20.395 0.185572 1.054963 -1.139864
2008-08-18 07:35:57 51°13.905 2°52.94 20.3936 0.185572 1.054963 -1.139864
2008-08-18 07:36:02 51°13.898 2°52.917 20.394 0.185572 1.054982 -1.139864
2008-08-18 07:36:07 51°13.891 2°52.893 20.3992 0.185572 1.054982 -1.139864
2008-08-18 07:36:12 51°13.884 2°52.869 20.3945 0.185572 1.054982 -1.139864
2008-08-18 07:36:17 51°13.877 2°52.845 20.3929 0.185572 1.054982 -1.139864
2008-08-18 07:36:22 51°13.87 2°52.821 20.4076 0.185572 1.055001 -1.139864
2008-08-18 07:36:27 51°13.863 2°52.798 20.4108 0.185572 1.05502 -1.139864
2008-08-18 07:36:31 51°13.857 2°52.779 20.4055 0.185572 1.05502 -1.139864
2008-08-18 07:36:37 51°13.849 2°52.75 20.4061 0.185572 1.05502 -1.139864
2008-08-18 07:36:42 51°13.842 2°52.726 20.4064 0.185572 1.05502 -1.139864
2008-08-18 07:36:47 51°13.835 2°52.702 20.4149 0.185572 1.055039 -1.139864
2008-08-18 07:36:52 51°13.828 2°52.678 20.4046 0.185572 1.055039 -1.139864
2008-08-18 07:36:57 51°13.821 2°52.655 20.4048 0.185572 1.055058 -1.139864
2008-08-18 07:37:02 51°13.813 2°52.631 20.4052 0.185572 1.055058 -1.139864
2008-08-18 07:37:07 51°13.806 2°52.607 20.4012 0.185572 1.055077 -1.139864
2008-08-18 07:37:11 51°13.801 2°52.588 20.4008 0.185572 1.055077 -1.139864
2008-08-18 07:37:17 51°13.792 2°52.559 20.4097 0.185572 1.055077 -1.139864
2008-08-18 07:37:22 51°13.785 2°52.535 20.4131 0.185572 1.055096 -1.139864
2008-08-18 07:37:27 51°13.778 2°52.512 20.4108 0.185572 1.055096 -1.139864
2008-08-18 07:37:32 51°13.771 2°52.488 20.416 0.185572 1.055115 -1.139864
2008-08-18 07:37:37 51°13.764 2°52.464 20.4105 0.185572 1.055115 -1.139864
2008-08-18 07:37:42 51°13.757 2°52.44 20.4153 0.185572 1.055115 -1.139864
2008-08-18 07:37:47 51°13.749 2°52.416 20.4236 0.185572 1.055134 -1.139864
2008-08-18 07:37:51 51°13.744 2°52.397 20.4134 0.18547 1.054519 -1.139864
2008-08-18 07:37:57 51°13.735 2°52.369 20.4073 0.185572 1.055153 -1.139864
2008-08-18 07:38:02 51°13.727 2°52.345 20.4156 0.18547 1.054538 -1.139864
2008-08-18 07:38:07 51°13.719 2°52.321 20.4147 0.18547 1.054557 -1.139864
2008-08-18 07:38:12 51°13.712 2°52.298 20.4343 0.18547 1.054557 -1.139864
2008-08-18 07:38:17 51°13.705 2°52.274 20.409 0.18547 1.054557 -1.139864
2008-08-18 07:38:22 51°13.698 2°52.25 20.4169 0.18547 1.054557 -1.139864
2008-08-18 07:38:27 51°13.691 2°52.226 20.4107 0.18547 1.054576 -1.139864
2008-08-18 07:38:31 51°13.685 2°52.206 20.4268 0.18547 1.054576 -1.139864
2008-08-18 07:38:37 51°13.677 2°52.177 20.4209 0.18547 1.054595 -1.139864
2008-08-18 07:38:42 51°13.67 2°52.154 20.4324 0.18547 1.054595 -1.139864
2008-08-18 07:38:47 51°13.663 2°52.13 20.4204 0.18547 1.054614 -1.139864
2008-08-18 07:38:52 51°13.656 2°52.106 20.4242 0.18547 1.054614 -1.139864
2008-08-18 07:38:57 51°13.649 2°52.081 20.42 0.18547 1.054633 -1.139864
2008-08-18 07:39:02 51°13.642 2°52.057 20.4248 0.18547 1.054633 -1.139864
2008-08-18 07:39:07 51°13.635 2°52.033 20.4258 0.18547 1.054652 -1.139864
2008-08-18 07:39:12 51°13.629 2°52.01 20.4313 0.18547 1.054652 -1.139864
2008-08-18 07:39:17 51°13.622 2°51.987 20.4349 0.18547 1.054652 -1.139864
2008-08-18 07:39:22 51°13.616 2°51.963 20.4313 0.18547 1.054671 -1.139864
2008-08-18 07:39:27 51°13.609 2°51.941 20.4326 0.18547 1.05469 -1.139864
2008-08-18 07:39:31 51°13.604 2°51.923 20.425 0.18547 1.05469 -1.139864
2008-08-18 07:39:37 51°13.596 2°51.896 20.4349 0.18547 1.05469 -1.139864
2008-08-18 07:39:42 51°13.589 2°51.874 20.4237 0.18547 1.05469 -1.139864
2008-08-18 07:39:47 51°13.583 2°51.852 20.405 0.18547 1.05469 -1.139864
2008-08-18 07:39:52 51°13.577 2°51.83 20.4257 0.18547 1.054709 -1.139864
2008-08-18 07:39:57 51°13.571 2°51.81 20.4315 0.18547 1.054728 -1.139864
2008-08-18 07:40:02 51°13.565 2°51.79 20.437 0.18547 1.054728 -1.139864
2008-08-18 07:40:07 51°13.56 2°51.771 20.4355 0.18547 1.054748 -1.139864
2008-08-18 07:40:12 51°13.554 2°51.754 20.4492 0.18547 1.054748 -1.139864
2008-08-18 07:40:17 51°13.549 2°51.737 20.4493 0.18547 1.054767 -1.139864
2008-08-18 07:40:22 51°13.544 2°51.722 20.4451 0.18547 1.054786 -1.139864
2008-08-18 07:40:27 51°13.54 2°51.708 20.4464 0.18547 1.054805 -1.139864
2008-08-18 07:40:31 51°13.536 2°51.697 20.4455 0.18547 1.054805 -1.139864
2008-08-18 07:40:37 51°13.531 2°51.681 20.4486 0.18547 1.054805 -1.139864
2008-08-18 07:40:42 51°13.526 2°51.669 20.4438 0.18547 1.054805 -1.139864
2008-08-18 07:40:47 51°13.522 2°51.657 20.4465 0.18547 1.054805 -1.139864
2008-08-18 07:40:52 51°13.518 2°51.646 20.4415 0.18547 1.054805 -1.139864
2008-08-18 07:40:57 51°13.514 2°51.635 20.4507 0.18547 1.054824 -1.139864
2008-08-18 07:41:02 51°13.511 2°51.625 20.446 0.18547 1.054824 -1.139864
2008-08-18 07:41:07 51°13.507 2°51.615 20.4455 0.18547 1.054843 -1.139864
2008-08-18 07:41:12 51°13.503 2°51.605 20.4482 0.18547 1.054843 -1.139864
2008-08-18 07:41:17 51°13.5 2°51.596 20.4482 0.18547 1.054843 -1.139864
2008-08-18 07:41:22 51°13.496 2°51.587 20.4524 0.18547 1.054843 -1.139864
2008-08-18 07:41:27 51°13.493 2°51.579 20.449 0.18547 1.054862 -1.139864
2008-08-18 07:41:32 51°13.49 2°51.571 20.4478 0.18547 1.054862 -1.139864
2008-08-18 07:41:37 51°13.487 2°51.563 20.447 0.18547 1.054881 -1.139864
2008-08-18 07:41:42 51°13.484 2°51.555 20.4469 0.18547 1.054881 -1.139864
2008-08-18 07:41:47 51°13.482 2°51.548 20.4596 0.18547 1.0549 -1.139864
2008-08-18 07:41:51 51°13.479 2°51.542 20.4494 0.18547 1.0549 -1.139864
2008-08-18 07:41:57 51°13.476 2°51.533 20.4582 0.18547 1.054919 -1.139864
2008-08-18 07:42:02 51°13.474 2°51.526 20.4565 0.18547 1.054919 -1.139864
2008-08-18 07:42:07 51°13.472 2°51.52 20.4546 0.18547 1.054938 -1.139864
2008-08-18 07:42:12 51°13.47 2°51.513 20.457 0.18547 1.054938 -1.139864
2008-08-18 07:42:17 51°13.467 2°51.507 20.4601 0.18547 1.054919 -1.139864
2008-08-18 07:42:22 51°13.465 2°51.501 20.4583 0.18547 1.054938 -1.139864
2008-08-18 07:42:27 51°13.463 2°51.495 20.4611 0.18547 1.054957 -1.139864
2008-08-18 07:42:32 51°13.461 2°51.489 20.4634 0.18547 1.054957 -1.139864
2008-08-18 07:42:37 51°13.459 2°51.483 20.4615 0.18547 1.054957 -1.139864
2008-08-18 07:42:42 51°13.457 2°51.478 20.4573 0.18547 1.054957 -1.139864
2008-08-18 07:42:47 51°13.455 2°51.473 20.4593 0.18547 1.054976 -1.139864
2008-08-18 07:42:52 51°13.454 2°51.468 20.462 0.18547 1.054976 -1.139864
2008-08-18 07:42:57 51°13.452 2°51.463 20.4683 0.18547 1.054995 -1.139864
2008-08-18 07:43:02 51°13.451 2°51.458 20.4637 0.18547 1.055014 -1.139864
2008-08-18 07:43:07 51°13.45 2°51.453 20.4671 0.18547 1.055033 -1.139864
2008-08-18 07:43:12 51°13.449 2°51.449 20.4668 0.18547 1.055033 -1.139864
2008-08-18 07:43:17 51°13.448 2°51.446 20.4584 0.18547 1.055033 -1.139864
2008-08-18 07:43:22 51°13.447 2°51.443 20.4568 0.18547 1.055033 -1.139864
2008-08-18 07:43:27 51°13.447 2°51.44 20.4695 0.18547 1.055052 -1.139864
2008-08-18 07:43:32 51°13.446 2°51.438 20.4641 0.18547 1.055052 -1.139864
2008-08-18 07:43:37 51°13.446 2°51.436 20.4646 0.18547 1.055071 -1.139864
2008-08-18 07:43:42 51°13.447 2°51.435 20.4774 0.18547 1.055071 -1.139864
2008-08-18 07:43:47 51°13.447 2°51.433 20.4844 0.18547 1.055071 -1.139864
2008-08-18 07:43:52 51°13.447 2°51.432 20.4791 0.18547 1.055071 -1.139864
2008-08-18 07:43:57 51°13.447 2°51.431 20.4784 0.18547 1.05509 -1.10504
2008-08-18 07:44:02 51°13.447 2°51.43 20.4796 0.18547 1.05509 -1.139864
2008-08-18 07:44:07 51°13.447 2°51.429 20.4832 0.18547 1.055109 -1.139864
2008-08-18 07:44:11 51°13.447 2°51.428 20.4778 0.18547 1.055109 -1.139864
2008-08-18 07:44:17 51°13.447 2°51.426 20.4885 0.18547 1.055109 -1.139864
2008-08-18 07:44:22 51°13.447 2°51.425 20.4783 0.18547 1.055128 -1.139864
2008-08-18 07:44:27 51°13.447 2°51.424 20.4812 0.185367 1.054532 -1.139864
2008-08-18 07:44:31 51°13.447 2°51.423 20.4836 0.185367 1.054551 -1.139864
2008-08-18 07:44:37 51°13.446 2°51.421 20.4847 0.18547 1.055185 -1.139864
2008-08-18 07:44:42 51°13.446 2°51.42 20.4927 0.18547 1.055185 -1.139864
2008-08-18 07:44:47 51°13.446 2°51.418 20.484 0.185367 1.05457 -1.139864
2008-08-18 07:44:52 51°13.446 2°51.417 20.4883 0.185367 1.05457 -1.139864
2008-08-18 07:44:57 51°13.446 2°51.416 20.4875 0.185367 1.054589 -1.139864
2008-08-18 07:45:02 51°13.445 2°51.414 20.4881 0.185367 1.054589 -1.139864
2008-08-18 07:45:07 51°13.445 2°51.413 20.496 0.185367 1.054608 -1.139864
2008-08-18 07:45:12 51°13.445 2°51.411 20.4894 0.185367 1.054608 -1.139864
2008-08-18 07:45:17 51°13.444 2°51.41 20.4906 0.185367 1.054608 -1.139864
2008-08-18 07:45:22 51°13.444 2°51.408 20.4955 0.185367 1.054627 -1.139864
2008-08-18 07:45:27 51°13.443 2°51.407 20.497 0.185367 1.054627 -1.139864
2008-08-18 07:45:32 51°13.443 2°51.405 20.4874 0.185367 1.054627 -1.139864
2008-08-18 07:45:37 51°13.443 2°51.404 20.4952 0.185367 1.054646 -1.139864
2008-08-18 07:45:42 51°13.442 2°51.402 20.4967 0.185367 1.054646 -1.139864
2008-08-18 07:45:47 51°13.442 2°51.401 20.4971 0.185367 1.054665 -1.139864
2008-08-18 07:45:52 51°13.441 2°51.399 20.4956 0.185367 1.054665 -1.139864
2008-08-18 07:45:57 51°13.441 2°51.398 20.4978 0.185367 1.054684 -1.139864
2008-08-18 07:46:02 51°13.44 2°51.396 20.5044 0.185367 1.054684 -1.139864
2008-08-18 07:46:07 51°13.44 2°51.395 20.502 0.185367 1.054703 -1.139864
2008-08-18 07:46:12 51°13.44 2°51.393 20.497 0.185367 1.054703 -1.139864
2008-08-18 07:46:17 51°13.439 2°51.391 20.5027 0.185367 1.054722 -1.139864
2008-08-18 07:46:22 51°13.439 2°51.39 20.5025 0.185367 1.054722 -1.139864
2008-08-18 07:46:27 51°13.439 2°51.388 20.501 0.185367 1.054722 -1.10504
2008-08-18 07:46:32 51°13.438 2°51.387 20.5038 0.185367 1.054722 -1.139864
2008-08-18 07:46:37 51°13.438 2°51.385 20.5059 0.185367 1.054722 -1.139864
2008-08-18 07:46:42 51°13.438 2°51.383 20.5024 0.185367 1.054722 -1.139864
2008-08-18 07:46:47 51°13.437 2°51.382 20.5047 0.185367 1.054741 -1.139864
2008-08-18 07:46:52 51°13.437 2°51.38 20.507 0.185367 1.054741 -1.139864
2008-08-18 07:46:57 51°13.436 2°51.379 20.5093 0.185367 1.05476 -1.139864
2008-08-18 07:47:02 51°13.436 2°51.377 20.5111 0.185367 1.054779 -1.139864
2008-08-18 07:47:07 51°13.436 2°51.375 20.5131 0.185367 1.054798 -1.139864
2008-08-18 07:47:12 51°13.435 2°51.374 20.5088 0.185367 1.054798 -1.139864
2008-08-18 07:47:17 51°13.436 2°51.372 20.5076 0.185367 1.054798 -1.139864
2008-08-18 07:47:22 51°13.435 2°51.371 20.5113 0.185367 1.054817 -1.139864
2008-08-18 07:47:27 51°13.435 2°51.369 20.508 0.185367 1.054817 -1.139864
2008-08-18 07:47:31 51°13.435 2°51.368 20.5086 0.185367 1.054836 -1.139864
2008-08-18 07:47:37 51°13.434 2°51.366 20.5099 0.185367 1.054855 -1.139864
2008-08-18 07:47:42 51°13.434 2°51.364 20.5152 0.185367 1.054855 -1.139864
2008-08-18 07:47:47 51°13.433 2°51.363 20.5142 0.185367 1.054855 -1.139864
2008-08-18 07:47:51 51°13.433 2°51.361 20.5127 0.185367 1.054874 -1.139864
2008-08-18 07:47:57 51°13.432 2°51.359 20.5186 0.185367 1.054874 -1.139864
2008-08-18 07:48:02 51°13.431 2°51.357 20.5096 0.185367 1.054893 -1.139864
2008-08-18 07:48:07 51°13.431 2°51.356 20.5148 0.185367 1.054893 -1.139864
2008-08-18 07:48:11 51°13.431 2°51.354 20.5163 0.185367 1.054893 -1.139864
2008-08-18 07:48:17 51°13.43 2°51.353 20.5213 0.185367 1.054893 -1.139864
2008-08-18 07:48:22 51°13.43 2°51.351 20.5218 0.185367 1.054912 -1.139864
2008-08-18 07:48:27 51°13.429 2°51.349 20.5257 0.185367 1.054931 -1.139864
2008-08-18 07:48:31 51°13.429 2°51.348 20.5222 0.185367 1.054931 -1.139864
2008-08-18 07:48:37 51°13.428 2°51.346 20.5187 0.185367 1.05495 -1.139864
2008-08-18 07:48:42 51°13.428 2°51.344 20.5206 0.185367 1.05495 -1.139864
2008-08-18 07:48:47 51°13.427 2°51.342 20.5219 0.185367 1.054969 -1.139864
2008-08-18 07:48:51 51°13.427 2°51.341 20.5213 0.185367 1.054988 -1.139864
2008-08-18 07:48:57 51°13.426 2°51.339 20.52 0.185367 1.054988 -1.139864
2008-08-18 07:49:02 51°13.425 2°51.337 20.5221 0.185367 1.055007 -1.139864
2008-08-18 07:49:07 51°13.425 2°51.335 20.5308 0.185367 1.055007 -1.139864
2008-08-18 07:49:11 51°13.425 2°51.334 20.5302 0.185367 1.055007 -1.139864
2008-08-18 07:49:17 51°13.424 2°51.332 20.5329 0.185367 1.055026 -1.139864
2008-08-18 07:49:22 51°13.423 2°51.33 20.5313 0.185367 1.055045 -1.139864
2008-08-18 07:49:27 51°13.423 2°51.328 20.5331 0.185367 1.055045 -1.139864
2008-08-18 07:49:32 51°13.422 2°51.326 20.5218 0.185367 1.055065 -1.139864
2008-08-18 07:49:37 51°13.422 2°51.325 20.525 0.185367 1.055084 -1.139864
2008-08-18 07:49:42 51°13.422 2°51.323 20.5318 0.185367 1.055084 -1.139864
2008-08-18 07:49:47 51°13.421 2°51.321 20.5363 0.185367 1.055084 -1.139864
2008-08-18 07:49:51 51°13.421 2°51.32 20.5398 0.185367 1.055084 -1.139864
2008-08-18 07:49:57 51°13.42 2°51.318 20.5322 0.185367 1.055103 -1.139864
2008-08-18 07:50:02 51°13.42 2°51.316 20.5263 0.185367 1.055122 -1.139864
2008-08-18 07:50:07 51°13.419 2°51.314 20.5358 0.185367 1.055141 -1.139864
2008-08-18 07:50:12 51°13.419 2°51.312 20.5393 0.185367 1.055141 -1.139864
2008-08-18 07:50:17 51°13.418 2°51.311 20.556 0.185367 1.055141 -1.139864
2008-08-18 07:50:22 51°13.418 2°51.309 20.5477 0.185367 1.05516 -1.139864
2008-08-18 07:50:27 51°13.417 2°51.307 20.541 0.185367 1.055179 -1.139864
2008-08-18 07:50:31 51°13.417 2°51.306 20.5377 0.185367 1.055198 -1.139864
2008-08-18 07:50:37 51°13.417 2°51.303 20.5395 0.185367 1.055198 -1.139864
2008-08-18 07:50:42 51°13.416 2°51.302 20.5514 0.185367 1.055198 -1.139864
2008-08-18 07:50:47 51°13.416 2°51.3 20.5491 0.185264 1.054601 -1.139864
2008-08-18 07:50:51 51°13.416 2°51.298 20.5467 0.185264 1.054601 -1.139864
2008-08-18 07:50:57 51°13.415 2°51.296 20.5408 0.185264 1.05462 -1.139864
2008-08-18 07:51:02 51°13.415 2°51.294 20.5456 0.185264 1.054639 -1.139864
2008-08-18 07:51:07 51°13.414 2°51.293 20.5547 0.185264 1.054639 -1.139864
2008-08-18 07:51:12 51°13.414 2°51.291 20.5526 0.185264 1.054639 -1.139864
2008-08-18 07:51:17 51°13.414 2°51.289 20.5502 0.185264 1.054658 -1.139864
2008-08-18 07:51:22 51°13.413 2°51.287 20.5567 0.185264 1.054658 -1.139864
2008-08-18 07:51:27 51°13.413 2°51.285 20.5612 0.185264 1.054677 -1.139864
2008-08-18 07:51:31 51°13.413 2°51.284 20.5539 0.185264 1.054677 -1.139864
2008-08-18 07:51:37 51°13.413 2°51.281 20.5646 0.185264 1.054696 -1.139864
2008-08-18 07:51:42 51°13.413 2°51.279 20.5629 0.185264 1.054696 -1.139864
2008-08-18 07:51:47 51°13.413 2°51.276 20.5694 0.185264 1.054716 -1.139864
2008-08-18 07:51:51 51°13.413 2°51.274 20.5605 0.185264 1.054735 -1.139864
2008-08-18 07:51:57 51°13.413 2°51.271 20.5698 0.185264 1.054735 -1.139864
2008-08-18 07:52:02 51°13.413 2°51.268 20.5836 0.185264 1.054754 -1.139864
2008-08-18 07:52:07 51°13.413 2°51.264 20.7472 0.185264 1.054773 -1.035392
2008-08-18 07:52:11 51°13.414 2°51.26 18.9094 0.185264 1.054773 -1.035392
2008-08-18 07:52:17 51°13.414 2°51.252 18.7387 0.185367 1.055484 -0.58268
2008-08-18 07:52:22 51°13.414 2°51.245 18.6499 0.185161 1.053891 -0.164791
2008-08-18 07:52:27 51°13.414 2°51.236 18.6225 0.27595 1.605996 2.830078
2008-08-18 07:52:31 51°13.414 2°51.229 18.6025 0.680447 4.167471 3.944447
2008-08-18 07:52:37 51°13.412 2°51.217 18.5468 1.260311 8.062884 3.735503
2008-08-18 07:52:42 51°13.41 2°51.207 18.5132 1.260311 8.062884 3.735503
2008-08-18 07:52:47 51°13.407 2°51.197 18.4869 1.648519 10.890817 3.805151
2008-08-18 07:52:52 51°13.404 2°51.187 18.4944 2.444861 16.882705 3.526559
2008-08-18 07:52:57 51°13.399 2°51.177 18.4721 3.506726 25.24819 3.178318
2008-08-18 07:53:02 51°13.395 2°51.166 18.4618 4.265498 31.497338 3.004198
2008-08-18 07:53:07 51°13.39 2°51.155 18.4469 4.409969 32.775364 2.93455
2008-08-18 07:53:12 51°13.385 2°51.144 18.4388 4.409969 32.775364 2.93455
2008-08-18 07:53:17 51°13.379 2°51.131 18.4222 4.455334 33.215861 2.899726
2008-08-18 07:53:22 51°13.374 2°51.119 18.4159 4.472568 33.40296 2.899726
2008-08-18 07:53:27 51°13.368 2°51.106 18.4119 4.490114 33.574649 2.830078
2008-08-18 07:53:32 51°13.362 2°51.092 18.4137 4.495513 33.641704 2.76043
2008-08-18 07:53:37 51°13.357 2°51.079 18.4127 4.508906 33.77266 2.795254
2008-08-18 07:53:42 51°13.351 2°51.064 18.3997 4.508906 33.77266 2.795254
2008-08-18 07:53:47 51°13.345 2°51.05 18.3913 4.512852 33.821937 2.76043
2008-08-18 07:53:52 51°13.339 2°51.034 18.3893 4.51929 33.890892 2.725606
2008-08-18 07:53:57 51°13.332 2°51.018 18.3889 4.524377 33.945978 2.725606
2008-08-18 07:54:02 51°13.325 2°51 18.3942 4.523858 33.949431 2.690782
2008-08-18 07:54:07 51°13.317 2°50.982 18.3811 4.524481 33.959226 2.690782
2008-08-18 07:54:12 51°13.309 2°50.962 18.3785 4.524481 33.959226 2.690782
2008-08-18 07:54:17 51°13.3 2°50.943 18.3793 4.526247 33.981233 2.690782
2008-08-18 07:54:22 51°13.291 2°50.923 18.3768 4.528842 34.01089 2.690782
2008-08-18 07:54:27 51°13.283 2°50.902 18.37 4.528116 34.010001 2.655957
2008-08-18 07:54:32 51°13.274 2°50.88 18.3688 4.526455 33.999294 2.690782
2008-08-18 07:54:37 51°13.265 2°50.859 18.3663 4.526662 34.004958 2.621133
2008-08-18 07:54:42 51°13.256 2°50.837 18.3715 4.526662 34.004958 2.621133
2008-08-18 07:54:47 51°13.247 2°50.815 18.3742 4.527597 34.016739 2.655957
2008-08-18 07:54:52 51°13.237 2°50.792 18.3722 4.527182 34.017166 2.655957
2008-08-18 07:54:57 51°13.228 2°50.769 18.3739 4.529051 34.036162 2.621133
2008-08-18 07:55:02 51°13.218 2°50.746 18.3711 4.528635 34.036591 2.690782
2008-08-18 07:55:07 51°13.209 2°50.722 18.368 4.53175 34.065427 2.690782
2008-08-18 07:55:12 51°13.199 2°50.698 18.3703 4.53175 34.065427 2.690782
2008-08-18 07:55:17 51°13.189 2°50.674 18.3683 4.528428 34.038113 2.690782
2008-08-18 07:55:22 51°13.179 2°50.65 18.372 4.52957 34.048381 2.725606
2008-08-18 07:55:27 51°13.17 2°50.626 18.3676 4.529466 34.047507 2.76043
2008-08-18 07:55:32 51°13.159 2°50.601 18.3686 4.523444 33.997475 2.864902
2008-08-18 07:55:37 51°13.149 2°50.577 18.3709 4.530816 34.060179 2.899726
2008-08-18 07:55:42 51°13.14 2°50.552 18.3671 4.530816 34.060179 2.899726
2008-08-18 07:55:47 51°13.13 2°50.527 18.3739 4.533723 34.085965 2.864902
2008-08-18 07:55:52 51°13.12 2°50.504 18.368 4.533412 34.083998 2.830078
2008-08-18 07:55:57 51°13.11 2°50.479 18.3651 4.534242 34.090992 2.864902
2008-08-18 07:56:02 51°13.1 2°50.455 18.3678 4.534658 34.095144 2.899726
2008-08-18 07:56:07 51°13.09 2°50.43 18.366 4.532166 34.074162 2.864902
2008-08-18 07:56:12 51°13.079 2°50.406 18.3629 4.532166 34.074162 2.864902
2008-08-18 07:56:17 51°13.069 2°50.382 18.3645 4.533308 34.083779 2.899726
2008-08-18 07:56:22 51°13.059 2°50.357 18.3661 4.535177 34.100171 2.93455
2008-08-18 07:56:27 51°13.049 2°50.333 18.3634 4.536215 34.110226 2.969374
2008-08-18 07:56:32 51°13.039 2°50.308 18.3616 4.534865 34.099515 3.004198
2008-08-18 07:56:37 51°13.029 2°50.283 18.3599 4.534138 34.09405 3.004198
2008-08-18 07:56:42 51°13.019 2°50.259 18.3593 4.534138 34.09405 3.004198
2008-08-18 07:56:47 51°13.009 2°50.234 18.3586 4.535177 34.104761 3.004198
2008-08-18 07:56:52 51°12.999 2°50.21 18.3608 4.533827 34.093393 2.969374
2008-08-18 07:56:57 51°12.988 2°50.185 18.3618 4.533619 34.0923 3.004198
2008-08-18 07:57:02 51°12.978 2°50.16 18.3561 4.534242 34.098858 2.969374
2008-08-18 07:57:07 51°12.968 2°50.136 18.3584 4.529985 34.064318 2.969374
2008-08-18 07:57:12 51°12.958 2°50.111 18.3555 4.529985 34.064318 2.969374
2008-08-18 07:57:17 51°12.948 2°50.086 18.3555 4.532166 34.083335 2.969374
2008-08-18 07:57:22 51°12.938 2°50.061 18.3541 4.530816 34.073278 3.143494
2008-08-18 07:57:27 51°12.928 2°50.037 18.3563 4.530297 34.068906 3.143494
2008-08-18 07:57:32 51°12.918 2°50.012 18.3541 4.528947 34.058849 3.596207
2008-08-18 07:57:37 51°12.908 2°49.988 18.3528 4.528532 34.056006 3.073846
2008-08-18 07:57:42 51°12.898 2°49.963 18.3545 4.528532 34.056006 3.073846
2008-08-18 07:57:47 51°12.887 2°49.939 18.3536 4.524586 34.023436 2.864902
2008-08-18 07:57:52 51°12.877 2°49.914 18.3493 4.523237 34.012725 2.830078
2008-08-18 07:57:57 51°12.867 2°49.89 18.3497 4.524794 34.025839 2.830078
2008-08-18 07:58:02 51°12.857 2°49.865 18.3476 4.525521 34.033268 2.795254
2008-08-18 07:58:07 51°12.847 2°49.841 18.3485 4.517318 33.964858 2.830078
2008-08-18 07:58:12 51°12.837 2°49.816 18.3479 4.517318 33.964858 2.830078
2008-08-18 07:58:17 51°12.827 2°49.792 18.3498 4.521264 33.998076 2.830078
2008-08-18 07:58:22 51°12.817 2°49.768 18.3515 4.518772 33.977749 2.795254
2008-08-18 07:58:27 51°12.807 2°49.743 18.3528 4.516176 33.957202 2.795254
2008-08-18 07:58:32 51°12.797 2°49.719 18.3455 4.523548 34.020582 2.795254
2008-08-18 07:58:37 51°12.787 2°49.694 18.3468 4.529155 34.069115 2.795254
2008-08-18 07:58:42 51°12.778 2°49.669 18.3459 4.529155 34.069115 2.795254
2008-08-18 07:58:46 51°12.77 2°49.649 18.3456 4.520953 34.000031 2.76043
2008-08-18 07:58:52 51°12.758 2°49.62 18.347 4.52604 34.043533 2.725606
2008-08-18 07:58:57 51°12.748 2°49.595 18.3477 4.522614 34.013366 2.690782
2008-08-18 07:59:02 51°12.738 2°49.57 18.346 4.52822 34.061244 2.690782
2008-08-18 07:59:07 51°12.729 2°49.545 18.3469 4.526352 34.046156 2.690782
2008-08-18 07:59:12 51°12.719 2°49.521 18.3442 4.526352 34.046156 2.690782
2008-08-18 07:59:17 51°12.709 2°49.496 18.344 4.523548 34.023199 2.690782
2008-08-18 07:59:22 51°12.7 2°49.471 18.3444 4.523133 34.020356 2.690782
2008-08-18 07:59:27 51°12.691 2°49.446 18.3437 4.527182 34.055118 2.690782
2008-08-18 07:59:32 51°12.682 2°49.42 18.3434 4.526352 34.048121 2.690782
2008-08-18 07:59:37 51°12.672 2°49.395 18.3421 4.518149 33.979039 2.655957
2008-08-18 07:59:42 51°12.664 2°49.369 18.3433 4.518149 33.979039 2.655957
2008-08-18 07:59:47 51°12.655 2°49.344 18.3409 4.535489 34.126413 2.690782
2008-08-18 07:59:52 51°12.646 2°49.318 18.3418 4.535696 34.12882 2.655957
2008-08-18 07:59:57 51°12.638 2°49.292 18.3433 4.535904 34.131227 2.655957
2008-08-18 08:00:02 51°12.629 2°49.266 18.3422 4.535904 34.131227 2.690782
2008-08-18 08:00:07 51°12.62 2°49.24 18.3421 4.536838 34.139759 2.655957
2008-08-18 08:00:12 51°12.612 2°49.215 18.3396 4.536838 34.139759 2.655957
2008-08-18 08:00:17 51°12.603 2°49.189 18.3394 4.53362 34.112634 2.655957
2008-08-18 08:00:22 51°12.594 2°49.163 18.3394 4.536838 34.140416 2.690782
2008-08-18 08:00:27 51°12.586 2°49.137 18.3382 4.539123 34.160325 2.690782
2008-08-18 08:00:32 51°12.577 2°49.111 18.339 4.5385 34.155074 2.690782
2008-08-18 08:00:37 51°12.568 2°49.086 18.3399 4.538811 34.1577 2.725606
2008-08-18 08:00:42 51°12.56 2°49.06 18.3384 4.538811 34.1577 2.725606
2008-08-18 08:00:47 51°12.551 2°49.034 18.3389 4.534658 34.123353 2.690782
2008-08-18 08:00:52 51°12.543 2°49.008 18.3413 4.524171 34.035649 2.690782
2008-08-18 08:00:57 51°12.534 2°48.982 18.3391 4.536527 34.140418 2.690782
2008-08-18 08:01:02 51°12.525 2°48.956 18.3377 4.541096 34.179585 2.725606
2008-08-18 08:01:07 51°12.517 2°48.931 18.3369 4.540473 34.173676 2.690782
2008-08-18 08:01:12 51°12.508 2°48.905 18.3369 4.540473 34.173676 2.690782
2008-08-18 08:01:17 51°12.5 2°48.879 18.338 4.540576 34.174551 2.725606
2008-08-18 08:01:22 51°12.491 2°48.853 18.3384 4.542653 34.192057 2.725606
2008-08-18 08:01:27 51°12.482 2°48.827 18.3366 4.542238 34.188556 2.725606
2008-08-18 08:01:32 51°12.474 2°48.801 18.3376 4.536008 34.136699 2.76043
2008-08-18 08:01:37 51°12.465 2°48.775 18.3379 4.537462 34.149609 2.725606
2008-08-18 08:01:42 51°12.457 2°48.749 18.3371 4.537462 34.149609 2.725606
2008-08-18 08:01:47 51°12.449 2°48.723 18.3397 4.531232 34.09776 2.725606
2008-08-18 08:01:52 51°12.44 2°48.697 18.34 4.537358 34.148734 2.76043
2008-08-18 08:01:57 51°12.432 2°48.671 18.3394 4.536527 34.142389 2.76043
2008-08-18 08:02:02 51°12.423 2°48.646 18.3399 4.544211 34.207163 2.76043
2008-08-18 08:02:07 51°12.414 2°48.62 18.3408 4.546183 34.223797 2.725606
2008-08-18 08:02:12 51°12.406 2°48.594 18.3389 4.546183 34.223797 2.725606
2008-08-18 08:02:17 51°12.398 2°48.567 18.3423 4.536942 34.14589 2.76043
2008-08-18 08:02:22 51°12.39 2°48.541 18.3425 4.544003 34.204753 2.725606
2008-08-18 08:02:27 51°12.383 2°48.514 18.3402 4.539227 34.164488 2.725606
2008-08-18 08:02:32 51°12.376 2°48.487 18.3405 4.544522 34.208472 2.690782
2008-08-18 08:02:37 51°12.368 2°48.46 18.3422 4.545976 34.22007 2.690782
2008-08-18 08:02:42 51°12.361 2°48.433 18.3427 4.545976 34.22007 2.690782
2008-08-18 08:02:47 51°12.354 2°48.406 18.3434 4.537981 34.15267 2.690782
2008-08-18 08:02:52 51°12.347 2°48.378 18.3445 4.547741 34.234294 2.690782
2008-08-18 08:02:57 51°12.341 2°48.351 18.3469 4.548156 34.237797 2.690782
2008-08-18 08:03:02 51°12.334 2°48.324 18.3459 4.532478 34.105634 2.690782
2008-08-18 08:03:07 51°12.326 2°48.297 18.347 4.545872 34.217877 2.690782
2008-08-18 08:03:12 51°12.319 2°48.27 18.347 4.545872 34.217877 2.690782
2008-08-18 08:03:17 51°12.312 2°48.243 18.3477 4.543795 34.199712 2.655957
2008-08-18 08:03:22 51°12.305 2°48.216 18.3485 4.548883 34.241948 2.655957
2008-08-18 08:03:27 51°12.298 2°48.189 18.3495 4.549817 34.249169 2.655957
2008-08-18 08:03:32 51°12.291 2°48.162 18.3492 4.547429 34.229033 2.655957
2008-08-18 08:03:37 51°12.283 2°48.135 18.3503 4.546806 34.223122 2.621133
2008-08-18 08:03:42 51°12.276 2°48.107 18.3487 4.546806 34.223122 2.621133
2008-08-18 08:03:47 51°12.269 2°48.08 18.3492 4.549921 34.248726 2.655957
2008-08-18 08:03:52 51°12.262 2°48.053 18.3498 4.541615 34.178042 2.621133
2008-08-18 08:03:57 51°12.255 2°48.026 18.3508 4.547222 34.225307 2.621133
2008-08-18 08:04:02 51°12.247 2°47.999 18.3509 4.551583 34.261416 2.586309
2008-08-18 08:04:07 51°12.24 2°47.973 18.3512 4.551583 34.260757 2.586309
2008-08-18 08:04:12 51°12.232 2°47.946 18.3517 4.551583 34.260757 2.586309
2008-08-18 08:04:17 51°12.225 2°47.919 18.3522 4.547637 34.227491 2.551485
2008-08-18 08:04:22 51°12.218 2°47.892 18.3517 4.552309 34.266885 2.516661
2008-08-18 08:04:27 51°12.21 2°47.865 18.3527 4.548364 34.23296 2.516661
2008-08-18 08:04:32 51°12.203 2°47.838 18.3554 4.552413 34.267101 2.481837
2008-08-18 08:04:37 51°12.195 2°47.811 18.3542 4.553348 34.274322 2.516661
2008-08-18 08:04:42 51°12.188 2°47.785 18.352 4.553348 34.274322 2.516661
2008-08-18 08:04:47 51°12.181 2°47.758 18.3535 4.552309 34.264907 2.481837
2008-08-18 08:04:52 51°12.174 2°47.731 18.3542 4.549194 34.237987 2.447013
2008-08-18 08:04:57 51°12.166 2°47.704 18.354 4.553244 34.272127 2.447013
2008-08-18 08:05:02 51°12.159 2°47.677 18.3525 4.548779 34.233827 2.447013
2008-08-18 08:05:07 51°12.151 2°47.65 18.3529 4.548883 34.234043 2.412189
2008-08-18 08:05:12 51°12.144 2°47.624 18.3527 4.548883 34.234043 2.412189
2008-08-18 08:05:17 51°12.136 2°47.597 18.3524 4.553867 34.276721 2.412189
2008-08-18 08:05:22 51°12.129 2°47.57 18.3539 4.547325 34.220914 2.377365
2008-08-18 08:05:27 51°12.121 2°47.543 18.3537 4.540472 34.163157 2.377365
2008-08-18 08:05:32 51°12.114 2°47.516 18.3554 4.554282 34.279563 2.377365
2008-08-18 08:05:37 51°12.106 2°47.489 18.3548 4.550025 34.243672 2.342541
2008-08-18 08:05:42 51°12.099 2°47.462 18.3572 4.550025 34.243672 2.342541
2008-08-18 08:05:47 51°12.092 2°47.435 18.357 4.554594 34.28219 2.307717
2008-08-18 08:05:52 51°12.084 2°47.409 18.3557 4.555736 34.29182 2.307717
2008-08-18 08:05:57 51°12.077 2°47.382 18.356 4.555528 34.290069 2.272893
2008-08-18 08:06:02 51°12.069 2°47.355 18.3575 4.55667 34.29904 2.272893
2008-08-18 08:06:07 51°12.062 2°47.328 18.3574 4.557293 34.304294 2.272893
2008-08-18 08:06:12 51°12.054 2°47.301 18.3563 4.557293 34.304294 2.272893
2008-08-18 08:06:17 51°12.047 2°47.274 18.3568 4.555944 34.292252 2.272893
2008-08-18 08:06:22 51°12.039 2°47.248 18.3554 4.556359 34.295094 2.238069
2008-08-18 08:06:27 51°12.032 2°47.221 18.3558 4.556774 34.298596 2.238069
2008-08-18 08:06:32 51°12.024 2°47.194 18.356 4.55449 34.278676 2.238069
2008-08-18 08:06:37 51°12.017 2°47.167 18.3564 4.554178 34.27605 2.203245
2008-08-18 08:06:42 51°12.009 2°47.14 18.3567 4.554178 34.27605 2.203245
2008-08-18 08:06:47 51°12.002 2°47.114 18.3579 4.550025 34.241037 2.203245
2008-08-18 08:06:52 51°11.994 2°47.088 18.3581 4.555528 34.287431 2.203245
2008-08-18 08:06:57 51°11.986 2°47.061 18.3551 4.553036 34.26708 2.203245
2008-08-18 08:07:02 51°11.978 2°47.035 18.356 4.552621 34.263579 2.168421
2008-08-18 08:07:07 51°11.969 2°47.009 18.356 4.558436 34.312605 2.168421
2008-08-18 08:07:12 51°11.961 2°46.983 18.3585 4.558436 34.312605 2.168421
2008-08-18 08:07:17 51°11.954 2°46.956 18.3599 4.557709 34.306476 2.133597
2008-08-18 08:07:22 51°11.946 2°46.93 18.3556 4.55584 34.290057 2.168421
2008-08-18 08:07:27 51°11.94 2°46.902 18.3565 4.558643 34.313696 2.098773
2008-08-18 08:07:32 51°11.933 2°46.875 18.3586 4.555632 34.288966 2.133597
2008-08-18 08:07:37 51°11.927 2°46.848 18.3539 4.553244 34.268172 2.133597
2008-08-18 08:07:42 51°11.922 2°46.82 18.3544 4.553244 34.268172 2.133597
2008-08-18 08:07:47 51°11.917 2°46.792 18.3553 4.559682 34.322452 2.098773
2008-08-18 08:07:52 51°11.912 2°46.764 18.3559 4.555944 34.290273 2.098773
2008-08-18 08:07:57 51°11.907 2°46.736 18.3548 4.554386 34.277142 2.098773
2008-08-18 08:08:02 51°11.903 2°46.707 18.3553 4.559682 34.322452 2.098773
2008-08-18 08:08:07 51°11.899 2°46.679 18.3571 4.555424 34.286555 2.098773
2008-08-18 08:08:12 51°11.895 2°46.65 18.3549 4.555424 34.286555 2.098773
2008-08-18 08:08:17 51°11.891 2°46.621 18.3545 4.560201 34.32749 2.063949
2008-08-18 08:08:22 51°11.887 2°46.593 18.3523 4.557813 34.308011 2.063949
2008-08-18 08:08:27 51°11.883 2°46.564 18.3533 4.558851 34.316767 2.063949
2008-08-18 08:08:32 51°11.88 2°46.535 18.3518 4.559162 34.318734 2.063949
2008-08-18 08:08:37 51°11.876 2°46.506 18.3524 4.554178 34.276709 2.029124
2008-08-18 08:08:42 51°11.872 2°46.478 18.3535 4.554178 34.276709 2.029124
2008-08-18 08:08:47 51°11.868 2°46.449 18.353 4.55802 34.309103 2.029124
2008-08-18 08:08:52 51°11.864 2°46.42 18.3525 4.558747 34.315892 1.9943
2008-08-18 08:08:57 51°11.86 2°46.392 18.3543 4.553555 34.272776 2.029124
2008-08-18 08:09:02 51°11.856 2°46.363 18.3519 4.559474 34.323342 2.029124
2008-08-18 08:09:07 51°11.852 2°46.335 18.3528 4.560616 34.333635 1.9943
2008-08-18 08:09:12 51°11.847 2°46.306 18.3542 4.560616 34.333635 1.9943
2008-08-18 08:09:17 51°11.843 2°46.277 18.354 4.559059 34.319839 1.9943
2008-08-18 08:09:22 51°11.839 2°46.249 18.3552 4.559682 34.325753 1.9943
2008-08-18 08:09:27 51°11.835 2°46.22 18.3549 4.558747 34.317212 1.959476
2008-08-18 08:09:32 51°11.831 2°46.191 18.3539 4.56072 34.33385 1.9943
2008-08-18 08:09:37 51°11.827 2°46.163 18.3532 4.561758 34.343268 1.959476
2008-08-18 08:09:42 51°11.823 2°46.134 18.3531 4.561758 34.343268 1.959476
2008-08-18 08:09:47 51°11.819 2°46.106 18.3532 4.560201 34.329471 1.959476
2008-08-18 08:09:52 51°11.814 2°46.077 18.3524 4.561447 34.33998 1.959476
2008-08-18 08:09:57 51°11.81 2°46.048 18.3525 4.557916 34.309547 1.924652
2008-08-18 08:10:02 51°11.806 2°46.02 18.352 4.557916 34.309547 1.924652
2008-08-18 08:10:07 51°11.802 2°45.991 18.3521 4.56072 34.333189 1.889828
2008-08-18 08:10:12 51°11.797 2°45.962 18.3528 4.56072 34.333189 1.889828
2008-08-18 08:10:17 51°11.794 2°45.933 18.3514 4.555944 34.292912 1.889828
2008-08-18 08:10:22 51°11.79 2°45.904 18.3513 4.557086 34.303202 1.855004
2008-08-18 08:10:27 51°11.786 2°45.876 18.35 4.564354 34.364502 1.855004
2008-08-18 08:10:32 51°11.781 2°45.847 18.347 4.561966 34.345019 1.855004
2008-08-18 08:10:37 51°11.777 2°45.818 18.3466 4.564458 34.366039 1.855004
2008-08-18 08:10:42 51°11.773 2°45.79 18.3467 4.564458 34.366039 1.855004
2008-08-18 08:10:47 51°11.769 2°45.761 18.3459 4.564458 34.366039 1.855004
2008-08-18 08:10:52 51°11.764 2°45.732 18.3462 4.56425 34.364287 1.889828
2008-08-18 08:10:57 51°11.76 2°45.704 18.3425 4.56477 34.369327 1.855004
2008-08-18 08:11:02 51°11.756 2°45.675 18.3425 4.565393 34.375906 1.855004
2008-08-18 08:11:07 51°11.753 2°45.646 18.3402 4.565081 34.374601 1.889828
2008-08-18 08:11:12 51°11.749 2°45.617 18.3412 4.565081 34.374601 1.889828
2008-08-18 08:11:17 51°11.746 2°45.588 18.3414 4.5656 34.379642 1.889828
2008-08-18 08:11:22 51°11.744 2°45.559 18.3401 4.564251 34.368916 1.924652
2008-08-18 08:11:27 51°11.741 2°45.53 18.3389 4.565185 34.377461 1.924652
2008-08-18 08:11:32 51°11.739 2°45.501 18.3387 4.565497 34.380751 1.924652
2008-08-18 08:11:37 51°11.737 2°45.471 18.3374 4.565185 34.379446 1.959476
2008-08-18 08:11:42 51°11.734 2°45.442 18.3374 4.565185 34.379446 1.959476
2008-08-18 08:11:47 51°11.732 2°45.413 18.3349 4.565185 34.380108 1.959476
2008-08-18 08:11:52 51°11.73 2°45.384 18.3364 4.565081 34.379231 1.9943
2008-08-18 08:11:57 51°11.728 2°45.355 18.3393 4.565185 34.380769 1.9943
2008-08-18 08:12:02 51°11.726 2°45.326 18.3388 4.565081 34.381216 2.029124
2008-08-18 08:12:07 51°11.724 2°45.297 18.3381 4.564562 34.377498 2.029124
2008-08-18 08:12:12 51°11.722 2°45.268 18.3384 4.564562 34.377498 2.029124
2008-08-18 08:12:17 51°11.719 2°45.239 18.3383 4.56477 34.380573 2.029124
2008-08-18 08:12:22 51°11.717 2°45.21 18.3376 4.56477 34.381235 2.063949
2008-08-18 08:12:27 51°11.715 2°45.182 18.338 4.564562 34.379483 2.098773
2008-08-18 08:12:32 51°11.713 2°45.153 18.3378 4.564355 34.377069 2.133597
2008-08-18 08:12:37 51°11.711 2°45.124 18.3364 4.564147 34.375316 2.133597
2008-08-18 08:12:42 51°11.709 2°45.095 18.3357 4.564147 34.375316 2.133597
2008-08-18 08:12:47 51°11.707 2°45.066 18.3362 4.563835 34.372688 2.168421
2008-08-18 08:12:52 51°11.704 2°45.038 18.3356 4.563731 34.371812 2.238069
2008-08-18 08:12:57 51°11.703 2°45.009 18.3347 4.563524 34.370721 2.238069
2008-08-18 08:13:02 51°11.7 2°44.98 18.3344 4.563108 34.366555 2.307717
2008-08-18 08:13:07 51°11.699 2°44.951 18.3329 4.562797 34.363927 2.342541
2008-08-18 08:13:12 51°11.697 2°44.923 18.3318 4.562797 34.363927 2.342541
2008-08-18 08:13:17 51°11.695 2°44.894 18.3306 4.562382 34.361084 2.377365
2008-08-18 08:13:22 51°11.692 2°44.865 18.3303 4.561966 34.358241 2.412189
2008-08-18 08:13:27 51°11.691 2°44.837 18.3271 4.561447 34.35386 2.447013
2008-08-18 08:13:32 51°11.689 2°44.808 18.3287 4.559682 34.340289 2.481837
2008-08-18 08:13:37 51°11.687 2°44.78 18.3246 4.558228 34.328685 2.516661
2008-08-18 08:13:42 51°11.685 2°44.751 18.3225 4.558228 34.328685 2.516661
2008-08-18 08:13:47 51°11.683 2°44.722 18.3208 4.55854 34.331974 2.586309
2008-08-18 08:13:52 51°11.682 2°44.694 18.3195 4.556775 34.318403 2.586309
2008-08-18 08:13:57 51°11.68 2°44.665 18.3178 4.559578 34.34338 2.621133
2008-08-18 08:14:02 51°11.678 2°44.637 18.3178 4.559267 34.341412 2.621133
2008-08-18 08:14:07 51°11.676 2°44.608 18.3159 4.558851 34.33923 2.690782
2008-08-18 08:14:12 51°11.674 2°44.58 18.3153 4.558851 34.33923 2.690782
2008-08-18 08:14:17 51°11.673 2°44.552 18.311 4.55854 34.337923 2.725606
2008-08-18 08:14:22 51°11.671 2°44.523 18.3127 4.558332 34.337493 2.76043
2008-08-18 08:14:27 51°11.669 2°44.495 18.3111 4.556567 34.32458 2.795254
2008-08-18 08:14:32 51°11.667 2°44.466 18.3081 4.557709 34.335542 2.830078
2008-08-18 08:14:37 51°11.665 2°44.438 18.3077 4.557294 34.333359 2.864902
2008-08-18 08:14:42 51°11.664 2°44.41 18.3078 4.557294 34.333359 2.864902
2008-08-18 08:14:47 51°11.662 2°44.382 18.3047 4.556982 34.332052 2.899726
2008-08-18 08:14:52 51°11.66 2°44.353 18.3045 4.556775 34.331622 2.899726
2008-08-18 08:14:57 51°11.658 2°44.325 18.3033 4.556463 34.330315 2.899726
2008-08-18 08:15:02 51°11.656 2°44.297 18.3053 4.556359 34.3301 2.969374
2008-08-18 08:15:07 51°11.655 2°44.269 18.3024 4.556152 34.32967 2.969374
2008-08-18 08:15:12 51°11.653 2°44.241 18.3028 4.556152 34.32967 2.969374
2008-08-18 08:15:17 51°11.651 2°44.212 18.2995 4.55584 34.329024 3.004198
2008-08-18 08:15:22 51°11.649 2°44.184 18.2957 4.555737 34.328809 3.039022
2008-08-18 08:15:27 51°11.648 2°44.156 18.2973 4.555633 34.329255 3.039022
2008-08-18 08:15:32 51°11.646 2°44.128 18.2955 4.555425 34.328163 3.039022
2008-08-18 08:15:37 51°11.644 2°44.1 18.2945 4.555321 34.327948 3.073846
2008-08-18 08:15:42 51°11.643 2°44.072 18.293 4.555321 34.327948 3.073846
2008-08-18 08:15:47 51°11.64 2°44.044 18.2908 4.555217 34.328394 3.10867
2008-08-18 08:15:52 51°11.638 2°44.016 18.2913 4.555114 34.32884 3.178318
2008-08-18 08:15:57 51°11.636 2°43.988 18.29 4.555114 34.330163 3.143494
2008-08-18 08:16:02 51°11.633 2°43.96 18.2904 4.55501 34.33061 3.143494
2008-08-18 08:16:07 51°11.63 2°43.932 18.2881 4.55501 34.331933 3.178318
2008-08-18 08:16:12 51°11.627 2°43.904 18.287 4.55501 34.331933 3.178318
2008-08-18 08:16:17 51°11.625 2°43.877 18.2853 4.55501 34.333256 3.178318
2008-08-18 08:16:22 51°11.622 2°43.849 18.285 4.555114 34.334794 3.247966
2008-08-18 08:16:27 51°11.619 2°43.821 18.2835 4.55501 34.335241 3.247966
2008-08-18 08:16:32 51°11.616 2°43.793 18.2844 4.554906 34.335026 3.213142
2008-08-18 08:16:37 51°11.614 2°43.765 18.284 4.554802 34.334811 3.213142
2008-08-18 08:16:42 51°11.611 2°43.737 18.2833 4.554802 34.334811 3.213142
2008-08-18 08:16:47 51°11.608 2°43.71 18.2812 4.554802 34.336134 3.247966
2008-08-18 08:16:52 51°11.606 2°43.682 18.2801 4.554802 34.337458 3.28279
2008-08-18 08:16:57 51°11.603 2°43.654 18.2796 4.554906 34.338997 3.28279
2008-08-18 08:17:02 51°11.6 2°43.626 18.2801 4.554802 34.339443 3.28279
2008-08-18 08:17:07 51°11.596 2°43.599 18.2785 4.554906 34.34032 3.247966
2008-08-18 08:17:12 51°11.592 2°43.571 18.279 4.554906 34.34032 3.247966
2008-08-18 08:17:17 51°11.589 2°43.544 18.279 4.554906 34.340982 3.317614
2008-08-18 08:17:22 51°11.585 2°43.516 18.2783 4.55501 34.343183 3.317614
2008-08-18 08:17:27 51°11.581 2°43.488 18.2763 4.555114 34.345385 3.28279
2008-08-18 08:17:32 51°11.578 2°43.46 18.2766 4.55501 34.34517 3.28279
2008-08-18 08:17:37 51°11.574 2°43.433 18.2773 4.555114 34.346047 3.317614
2008-08-18 08:17:42 51°11.571 2°43.405 18.2758 4.555114 34.346047 3.317614
2008-08-18 08:17:47 51°11.568 2°43.377 18.277 4.555114 34.346709 3.352439
2008-08-18 08:17:52 51°11.565 2°43.349 18.2762 4.55501 34.345832 3.317614
2008-08-18 08:17:57 51°11.562 2°43.321 18.2754 4.555114 34.346709 3.352439
2008-08-18 08:18:02 51°11.558 2°43.294 18.2766 4.555322 34.349788 3.317614
2008-08-18 08:18:07 51°11.554 2°43.266 18.2754 4.555425 34.351327 3.352439
2008-08-18 08:18:12 51°11.55 2°43.239 18.2761 4.555425 34.351327 3.352439
2008-08-18 08:18:17 51°11.546 2°43.211 18.2754 4.555529 34.352204 3.352439
2008-08-18 08:18:22 51°11.542 2°43.183 18.2781 4.555529 34.352204 3.352439
2008-08-18 08:18:27 51°11.538 2°43.156 18.2791 4.555633 34.353744 3.352439
2008-08-18 08:18:32 51°11.533 2°43.128 18.278 4.555737 34.354621 3.387263
2008-08-18 08:18:37 51°11.529 2°43.101 18.278 4.555945 34.357038 3.387263
2008-08-18 08:18:42 51°11.525 2°43.073 18.2788 4.555945 34.357038 3.387263
2008-08-18 08:18:47 51°11.521 2°43.046 18.2791 4.556152 34.358792 3.422087
2008-08-18 08:18:52 51°11.516 2°43.018 18.2798 4.556256 34.359007 3.387263
2008-08-18 08:18:57 51°11.512 2°42.99 18.2788 4.556256 34.358344 3.422087
2008-08-18 08:19:02 51°11.508 2°42.963 18.2798 4.55636 34.359221 3.422087
2008-08-18 08:19:07 51°11.503 2°42.935 18.2801 4.556568 34.360313 3.422087
2008-08-18 08:19:12 51°11.499 2°42.908 18.2798 4.556568 34.360313 3.422087
2008-08-18 08:19:17 51°11.495 2°42.88 18.2801 4.556568 34.360313 3.422087
2008-08-18 08:19:22 51°11.491 2°42.853 18.2807 4.556671 34.360528 3.456911
2008-08-18 08:19:27 51°11.486 2°42.825 18.2811 4.556775 34.361405 3.422087
2008-08-18 08:19:32 51°11.482 2°42.798 18.279 4.556879 34.362282 3.422087
2008-08-18 08:19:37 51°11.478 2°42.77 18.2776 4.556983 34.363159 3.422087
2008-08-18 08:19:42 51°11.474 2°42.743 18.277 4.556983 34.363159 3.422087
2008-08-18 08:19:47 51°11.469 2°42.715 18.2779 4.557087 34.364037 3.422087
2008-08-18 08:19:52 51°11.465 2°42.688 18.2765 4.556983 34.362497 3.422087
2008-08-18 08:19:57 51°11.46 2°42.661 18.2753 4.556983 34.362497 3.422087
2008-08-18 08:20:02 51°11.454 2°42.634 18.2756 4.556983 34.362497 3.387263
2008-08-18 08:20:07 51°11.448 2°42.609 18.2731 4.557191 34.364914 3.387263
2008-08-18 08:20:12 51°11.443 2°42.584 18.2741 4.557191 34.364914 3.387263
2008-08-18 08:20:17 51°11.436 2°42.56 18.2727 4.557191 34.364914 3.387263
2008-08-18 08:20:22 51°11.429 2°42.538 18.2698 4.557191 34.366239 3.422087
2008-08-18 08:20:27 51°11.42 2°42.519 18.2709 4.557295 34.367779 3.387263
2008-08-18 08:20:32 51°11.411 2°42.502 18.2693 4.557295 34.367779 3.422087
2008-08-18 08:20:37 51°11.401 2°42.486 18.2699 4.557295 34.369104 3.387263
2008-08-18 08:20:42 51°11.391 2°42.472 18.2721 4.557295 34.369104 3.387263
2008-08-18 08:20:47 51°11.381 2°42.458 18.2714 4.557191 34.36889 3.387263
2008-08-18 08:20:52 51°11.371 2°42.446 18.2723 4.557191 34.370215 3.352439
2008-08-18 08:20:57 51°11.362 2°42.433 18.2689 4.557191 34.371541 3.387263
2008-08-18 08:21:02 51°11.353 2°42.421 18.2691 4.557191 34.372203 3.352439
2008-08-18 08:21:07 51°11.344 2°42.41 18.2662 4.557087 34.371326 3.352439
2008-08-18 08:21:12 51°11.336 2°42.398 18.2665 4.557087 34.371326 3.352439
2008-08-18 08:21:17 51°11.328 2°42.387 18.2669 4.556983 34.369786 3.352439
2008-08-18 08:21:22 51°11.32 2°42.376 18.2663 4.556879 34.368246 3.317614
2008-08-18 08:21:27 51°11.313 2°42.365 18.2657 4.556879 34.368246 3.317614
2008-08-18 08:21:32 51°11.305 2°42.354 18.2663 4.556879 34.368246 3.247966
2008-08-18 08:21:37 51°11.298 2°42.344 18.2676 4.556879 34.369571 3.28279
2008-08-18 08:21:42 51°11.291 2°42.334 18.2671 4.556879 34.369571 3.28279
2008-08-18 08:21:47 51°11.283 2°42.324 18.2668 4.556879 34.370897 3.28279
2008-08-18 08:21:52 51°11.276 2°42.314 18.2661 4.556879 34.37156 3.247966
2008-08-18 08:21:57 51°11.269 2°42.304 18.2666 4.556879 34.372223 3.178318
2008-08-18 08:22:02 51°11.262 2°42.294 18.2662 4.556879 34.372223 3.213142
2008-08-18 08:22:07 51°11.256 2°42.285 18.2662 4.556879 34.372223 3.143494
2008-08-18 08:22:12 51°11.249 2°42.275 18.2675 4.556879 34.372223 3.143494
2008-08-18 08:22:17 51°11.242 2°42.266 18.2675 4.556775 34.370683 3.143494
2008-08-18 08:22:22 51°11.235 2°42.256 18.2669 4.556775 34.370683 3.073846
2008-08-18 08:22:27 51°11.229 2°42.247 18.2652 4.556775 34.370683 3.039022
2008-08-18 08:22:32 51°11.222 2°42.238 18.2656 4.556672 34.370468 3.073846
2008-08-18 08:22:37 51°11.215 2°42.229 18.2664 4.556672 34.370468 3.039022
2008-08-18 08:22:42 51°11.208 2°42.221 18.267 4.556672 34.370468 3.039022
2008-08-18 08:22:47 51°11.202 2°42.212 18.2669 4.556256 34.366958 3.004198
2008-08-18 08:22:52 51°11.195 2°42.204 18.2678 4.556464 34.36805 2.969374
2008-08-18 08:22:57 51°11.188 2°42.196 18.2675 4.556464 34.368713 2.93455
2008-08-18 08:23:02 51°11.181 2°42.188 18.2675 4.556464 34.369376 2.969374
2008-08-18 08:23:07 51°11.174 2°42.18 18.2661 4.556152 34.366081 2.899726
2008-08-18 08:23:12 51°11.168 2°42.173 18.2674 4.556152 34.366081 2.899726
2008-08-18 08:23:17 51°11.162 2°42.166 18.2688 4.555737 34.362572 2.864902
2008-08-18 08:23:22 51°11.155 2°42.159 18.2687 4.555114 34.357307 2.830078
2008-08-18 08:23:27 51°11.149 2°42.152 18.2686 4.555218 34.357522 2.864902
2008-08-18 08:23:32 51°11.143 2°42.146 18.27 4.555218 34.357522 2.830078
2008-08-18 08:23:37 51°11.138 2°42.14 18.2685 4.555218 34.357522 2.830078
2008-08-18 08:23:42 51°11.133 2°42.135 18.2704 4.555218 34.357522 2.830078
2008-08-18 08:23:47 51°11.128 2°42.129 18.2718 4.55501 34.355767 2.795254
2008-08-18 08:23:52 51°11.123 2°42.124 18.2706 4.555218 34.356859 2.725606
2008-08-18 08:23:57 51°11.118 2°42.119 18.271 4.555114 34.355982 2.76043
2008-08-18 08:24:02 51°11.114 2°42.115 18.2715 4.554803 34.352025 2.690782
2008-08-18 08:24:07 51°11.11 2°42.111 18.2709 4.55501 34.354442 2.725606
2008-08-18 08:24:12 51°11.107 2°42.108 18.2729 4.55501 34.354442 2.725606
2008-08-18 08:24:17 51°11.104 2°42.104 18.2728 4.554906 34.352902 2.690782
2008-08-18 08:24:22 51°11.101 2°42.102 18.2733 4.554803 34.351363 2.725606
2008-08-18 08:24:27 51°11.1 2°42.099 18.2742 4.554803 34.351363 2.621133
2008-08-18 08:24:32 51°11.098 2°42.097 18.2733 4.554906 34.351578 2.621133
2008-08-18 08:24:37 51°11.098 2°42.095 18.275 4.554906 34.350915 2.586309
2008-08-18 08:24:42 51°11.098 2°42.092 18.2747 4.554906 34.350915 2.586309
2008-08-18 08:24:47 51°11.098 2°42.09 18.2747 4.554699 34.349161 2.586309
2008-08-18 08:24:52 51°11.099 2°42.088 18.2757 4.554906 34.350253 2.551485
2008-08-18 08:24:57 51°11.1 2°42.086 18.2748 4.554803 34.348713 2.551485
2008-08-18 08:25:02 51°11.101 2°42.084 18.2751 4.554699 34.347836 2.516661
2008-08-18 08:25:08 51°11.102 2°42.081 18.2767 4.554803 34.348051 2.516661
2008-08-18 08:25:14 51°11.103 2°42.078 18.2776 4.554803 34.348051 2.516661
2008-08-18 08:25:19 51°11.104 2°42.076 18.2779 4.554803 34.348051 2.516661
2008-08-18 08:25:24 51°11.105 2°42.074 18.2782 4.55501 34.349805 2.516661
2008-08-18 08:25:30 51°11.106 2°42.071 18.2788 4.55501 34.349143 2.481837
2008-08-18 08:25:36 51°11.107 2°42.069 18.2794 4.554595 34.345634 2.516661
2008-08-18 08:25:40 51°11.108 2°42.067 18.2794 4.55501 34.348481 2.516661
2008-08-18 08:25:45 51°11.108 2°42.065 18.2792 4.55501 34.348481 2.516661
2008-08-18 08:25:50 51°11.109 2°42.063 18.2798 4.555114 34.348696 2.551485
2008-08-18 08:25:55 51°11.11 2°42.06 18.2795 4.555322 34.35045 2.586309
2008-08-18 08:25:59 51°11.111 2°42.059 18.2801 4.555529 34.351542 2.551485
2008-08-18 08:26:04 51°11.112 2°42.056 18.2819 4.555425 34.350002 2.551485
2008-08-18 08:26:09 51°11.112 2°42.054 18.2812 4.555114 34.347371 2.586309
2008-08-18 08:26:14 51°11.113 2°42.052 18.2813 4.555114 34.347371 2.586309
2008-08-18 08:26:18 51°11.114 2°42.05 18.2806 4.555633 34.351094 2.551485
2008-08-18 08:26:23 51°11.115 2°42.048 18.2832 4.555633 34.350432 2.551485
2008-08-18 08:26:28 51°11.116 2°42.046 18.2827 4.555633 34.350432 2.481837
2008-08-18 08:26:33 51°11.117 2°42.044 18.2829 4.555633 34.350432 2.516661
2008-08-18 08:26:38 51°11.118 2°42.042 18.2834 4.555322 34.347139 2.481837
2008-08-18 08:26:42 51°11.118 2°42.04 18.2834 4.555322 34.347139 2.481837
2008-08-18 08:26:47 51°11.119 2°42.038 18.2834 4.555633 34.34977 2.447013
2008-08-18 08:26:52 51°11.12 2°42.036 18.2824 4.554283 34.338368 2.412189
2008-08-18 08:26:57 51°11.121 2°42.033 18.2823 4.555529 34.348231 2.377365
2008-08-18 08:27:02 51°11.122 2°42.031 18.281 4.555529 34.347568 2.412189
2008-08-18 08:27:07 51°11.123 2°42.029 18.282 4.555633 34.348445 2.412189
2008-08-18 08:27:12 51°11.124 2°42.026 18.2826 4.555633 34.348445 2.412189
2008-08-18 08:27:17 51°11.125 2°42.024 18.2815 4.555633 34.348445 2.377365
2008-08-18 08:27:22 51°11.126 2°42.022 18.2812 4.554699 34.340552 2.307717
2008-08-18 08:27:27 51°11.127 2°42.019 18.2828 4.555841 34.349537 2.272893
2008-08-18 08:27:32 51°11.128 2°42.017 18.2812 4.555737 34.349322 2.272893
2008-08-18 08:27:37 51°11.129 2°42.015 18.2836 4.555841 34.3502 2.272893
2008-08-18 08:27:42 51°11.13 2°42.012 18.2828 4.555841 34.3502 2.272893
2008-08-18 08:27:47 51°11.131 2°42.009 18.2816 4.555529 34.347568 2.238069
2008-08-18 08:27:52 51°11.132 2°42.007 18.2821 4.555322 34.346477 2.272893
2008-08-18 08:27:57 51°11.133 2°42.004 18.2816 4.555841 34.3502 2.203245
2008-08-18 08:28:02 51°11.133 2°42.002 18.282 4.555737 34.349322 2.168421
2008-08-18 08:28:07 51°11.134 2°41.999 18.2824 4.555737 34.349322 2.168421
2008-08-18 08:28:12 51°11.135 2°41.997 18.2809 4.555737 34.349322 2.168421
2008-08-18 08:28:17 51°11.136 2°41.994 18.2804 4.555633 34.348445 2.168421
2008-08-18 08:28:22 51°11.137 2°41.991 18.2803 4.555737 34.349322 2.168421
2008-08-18 08:28:27 51°11.137 2°41.988 18.281 4.555737 34.349322 2.203245
2008-08-18 08:28:32 51°11.138 2°41.985 18.2798 4.555737 34.349322 2.168421
2008-08-18 08:28:37 51°11.138 2°41.983 18.2803 4.555841 34.3502 2.133597
2008-08-18 08:28:42 51°11.138 2°41.982 18.2803 4.555841 34.3502 2.133597
2008-08-18 08:28:47 51°11.138 2°41.981 18.2812 4.555529 34.347568 2.133597
2008-08-18 08:28:52 51°11.137 2°41.982 18.2808 4.555841 34.350862 2.098773
2008-08-18 08:28:57 51°11.135 2°41.984 18.2811 4.555529 34.348893 2.098773
2008-08-18 08:29:02 51°11.133 2°41.988 18.2807 4.555945 34.352401 2.063949
2008-08-18 08:29:07 51°11.13 2°41.992 18.2826 4.555737 34.350647 2.063949
2008-08-18 08:29:12 51°11.125 2°41.997 18.2888 4.555737 34.350647 2.063949
2008-08-18 08:29:17 51°11.12 2°42 18.2913 4.554387 34.339245 2.098773
2008-08-18 08:29:22 51°11.113 2°42.004 18.2849 4.554802 34.342753 2.098773
2008-08-18 08:29:27 51°11.105 2°42.006 18.2805 4.554906 34.34363 2.098773
2008-08-18 08:29:32 51°11.097 2°42.009 18.2787 4.555841 34.350862 2.098773
2008-08-18 08:29:37 51°11.088 2°42.012 18.2786 4.555945 34.351077 2.168421
2008-08-18 08:29:42 51°11.078 2°42.015 18.2771 4.555945 34.351077 2.168421
2008-08-18 08:29:47 51°11.068 2°42.02 18.2782 4.555633 34.345797 2.238069
2008-08-18 08:29:52 51°11.057 2°42.024 18.2788 4.555529 34.343596 2.203245
2008-08-18 08:29:57 51°11.046 2°42.029 18.2784 4.555945 34.348428 2.342541
2008-08-18 08:30:02 51°11.035 2°42.034 18.2782 4.556152 34.352168 2.447013
2008-08-18 08:30:07 51°11.023 2°42.04 18.2796 4.556048 34.353278 2.447013
2008-08-18 08:30:12 51°11.012 2°42.046 18.2809 4.556048 34.353278 2.447013
2008-08-18 08:30:17 51°11 2°42.052 18.2826 4.556048 34.354603 2.481837
2008-08-18 08:30:22 51°10.988 2°42.058 18.2839 4.555945 34.35505 2.447013
2008-08-18 08:30:27 51°10.975 2°42.064 18.2851 4.555841 34.354173 2.481837
2008-08-18 08:30:32 51°10.963 2°42.071 18.2879 4.555841 34.353511 2.516661
2008-08-18 08:30:37 51°10.951 2°42.077 18.2911 4.51462 34.005582 2.516661
2008-08-18 08:30:42 51°10.939 2°42.085 18.2932 4.51462 34.005582 2.516661
2008-08-18 08:30:47 51°10.926 2°42.092 18.298 4.548676 34.292337 2.481837
2008-08-18 08:30:52 51°10.914 2°42.1 18.3009 4.555737 34.350647 2.516661
2008-08-18 08:30:57 51°10.902 2°42.107 18.3046 4.555633 34.349108 2.551485
2008-08-18 08:31:02 51°10.89 2°42.115 18.308 4.555737 34.347998 2.586309
2008-08-18 08:31:07 51°10.878 2°42.123 18.3104 4.555737 34.346012 2.586309
2008-08-18 08:31:12 51°10.866 2°42.131 18.3155 4.555737 34.346012 2.586309
2008-08-18 08:31:17 51°10.854 2°42.139 18.3182 4.555737 34.344026 2.586309
2008-08-18 08:31:22 51°10.841 2°42.147 18.3202 4.555737 34.341378 2.586309
2008-08-18 08:31:27 51°10.829 2°42.155 18.3226 4.555841 34.338285 2.621133
2008-08-18 08:31:32 51°10.817 2°42.163 18.3254 4.556048 34.33673 2.586309
2008-08-18 08:31:37 51°10.805 2°42.171 18.3282 4.556256 34.335837 2.621133
2008-08-18 08:31:42 51°10.793 2°42.179 18.3311 4.556256 34.335837 2.621133
2008-08-18 08:31:47 51°10.78 2°42.188 18.3332 4.55636 34.333406 2.586309
2008-08-18 08:31:52 51°10.768 2°42.196 18.3347 4.556567 34.331853 2.551485
2008-08-18 08:31:57 51°10.756 2°42.205 18.3363 4.556879 34.331837 2.586309
2008-08-18 08:32:02 51°10.744 2°42.214 18.3372 4.55719 34.331821 2.551485
2008-08-18 08:32:07 51°10.732 2°42.223 18.3384 4.557709 34.333558 2.551485
2008-08-18 08:32:12 51°10.721 2°42.233 18.3398 4.557709 34.333558 2.551485
2008-08-18 08:32:17 51°10.709 2°42.243 18.3401 4.558021 34.333542 2.447013
2008-08-18 08:32:22 51°10.697 2°42.252 18.3415 4.558332 34.333527 2.447013
2008-08-18 08:32:27 51°10.686 2°42.262 18.3415 4.558851 34.335924 2.377365
2008-08-18 08:32:32 51°10.674 2°42.271 18.3394 4.559267 34.337446 2.342541
2008-08-18 08:32:37 51°10.662 2°42.28 18.3401 4.559578 34.338752 2.342541
2008-08-18 08:32:42 51°10.65 2°42.29 18.339 4.559578 34.338752 2.342541
2008-08-18 08:32:47 51°10.638 2°42.299 18.3376 4.559993 34.340934 2.307717
2008-08-18 08:32:52 51°10.626 2°42.308 18.3359 4.560513 34.344653 2.307717
2008-08-18 08:32:57 51°10.614 2°42.317 18.3354 4.56072 34.345083 2.238069
2008-08-18 08:33:02 51°10.603 2°42.326 18.3347 4.561136 34.347926 2.238069
2008-08-18 08:33:07 51°10.591 2°42.335 18.3304 4.561551 34.35143 2.203245
2008-08-18 08:33:12 51°10.579 2°42.345 18.3294 4.561551 34.35143 2.203245
2008-08-18 08:33:17 51°10.567 2°42.354 18.3281 4.561759 34.353843 2.168421
2008-08-18 08:33:22 51°10.555 2°42.364 18.3257 4.56207 34.357133 2.168421
2008-08-18 08:33:27 51°10.543 2°42.373 18.3222 4.562174 34.35867 2.133597
2008-08-18 08:33:32 51°10.532 2°42.383 18.3204 4.562278 34.360869 2.133597
2008-08-18 08:33:37 51°10.52 2°42.392 18.3174 4.561655 34.356935 2.133597
2008-08-18 08:33:42 51°10.508 2°42.402 18.3159 4.561655 34.356935 2.133597
2008-08-18 08:33:47 51°10.497 2°42.412 18.314 4.561136 34.353877 2.133597
2008-08-18 08:33:52 51°10.485 2°42.422 18.3133 4.56207 34.363747 2.133597
2008-08-18 08:33:57 51°10.473 2°42.432 18.3108 4.56072 34.35434 2.133597
2008-08-18 08:34:02 51°10.462 2°42.441 18.3105 4.561655 34.364211 2.133597
2008-08-18 08:34:07 51°10.451 2°42.45 18.3093 4.559578 34.349331 2.168421
2008-08-18 08:34:12 51°10.441 2°42.459 18.3067 4.559578 34.349331 2.168421
2008-08-18 08:34:17 51°10.431 2°42.467 18.3065 4.559163 34.34781 2.168421
2008-08-18 08:34:22 51°10.422 2°42.475 18.3046 4.558955 34.348042 2.168421
2008-08-18 08:34:27 51°10.413 2°42.482 18.3064 4.558332 34.344106 2.238069
2008-08-18 08:34:32 51°10.405 2°42.488 18.3049 4.557709 34.340171 2.203245
2008-08-18 08:34:37 51°10.397 2°42.494 18.3037 4.557502 34.339741 2.168421
2008-08-18 08:34:42 51°10.39 2°42.499 18.3034 4.557502 34.339741 2.168421
2008-08-18 08:34:47 51°10.383 2°42.504 18.3008 4.557502 34.341725 2.203245
2008-08-18 08:34:52 51°10.376 2°42.508 18.3015 4.556983 34.338665 2.238069
2008-08-18 08:34:57 51°10.369 2°42.511 18.3017 4.55636 34.334068 2.203245
2008-08-18 08:35:02 51°10.363 2°42.515 18.2995 4.557917 34.347878 2.272893
2008-08-18 08:35:07 51°10.357 2°42.518 18.2994 4.557606 34.34591 2.272893
2008-08-18 08:35:12 51°10.351 2°42.521 18.2993 4.557606 34.34591 2.272893
2008-08-18 08:35:17 51°10.345 2°42.524 18.2981 4.557294 34.344603 2.272893
2008-08-18 08:35:22 51°10.34 2°42.526 18.2977 4.557086 34.343511 2.272893
2008-08-18 08:35:27 51°10.335 2°42.529 18.2979 4.556775 34.341543 2.272893
2008-08-18 08:35:32 51°10.331 2°42.532 18.2962 4.556567 34.340452 2.272893
2008-08-18 08:35:37 51°10.326 2°42.534 18.2972 4.539123 34.193886 2.307717
2008-08-18 08:35:42 51°10.322 2°42.537 18.296 4.539123 34.193886 2.307717
2008-08-18 08:35:47 51°10.318 2°42.54 18.295 4.556256 34.339145 2.272893
2008-08-18 08:35:52 51°10.315 2°42.543 18.2949 4.556048 34.338053 2.272893
2008-08-18 08:35:57 51°10.311 2°42.546 18.2942 4.555841 34.336961 2.307717
2008-08-18 08:36:02 51°10.308 2°42.549 18.2949 4.555737 34.336085 2.307717
2008-08-18 08:36:07 51°10.305 2°42.553 18.2944 4.555529 34.334993 2.307717
2008-08-18 08:36:12 51°10.302 2°42.557 18.2925 4.555529 34.334993 2.307717
2008-08-18 08:36:17 51°10.299 2°42.561 18.2932 4.555321 34.333901 2.307717
2008-08-18 08:36:22 51°10.296 2°42.565 18.291 4.555114 34.332809 2.342541
2008-08-18 08:36:27 51°10.293 2°42.57 18.2909 4.55501 34.331933 2.377365
2008-08-18 08:36:32 51°10.29 2°42.574 18.2893 4.554698 34.329964 2.342541
2008-08-18 08:36:37 51°10.287 2°42.579 18.2899 4.554491 34.328211 2.377365
2008-08-18 08:36:42 51°10.284 2°42.585 18.2874 4.554491 34.328211 2.377365
2008-08-18 08:36:47 51°10.281 2°42.59 18.2861 4.554283 34.327119 2.412189
2008-08-18 08:36:52 51°10.278 2°42.595 18.2851 4.554075 34.326027 2.377365
2008-08-18 08:36:57 51°10.275 2°42.6 18.2842 4.553868 34.324935 2.377365
2008-08-18 08:37:02 51°10.271 2°42.606 18.2837 4.55366 34.323843 2.412189
2008-08-18 08:37:07 51°10.268 2°42.612 18.2819 4.553349 34.321874 2.447013
2008-08-18 08:37:12 51°10.264 2°42.618 18.2809 4.553349 34.321874 2.447013
2008-08-18 08:37:17 51°10.26 2°42.624 18.2792 4.553141 34.320782 2.481837
2008-08-18 08:37:22 51°10.257 2°42.63 18.2782 4.552829 34.319474 2.481837
2008-08-18 08:37:27 51°10.253 2°42.637 18.2786 4.552518 34.318167 2.516661
2008-08-18 08:37:32 51°10.249 2°42.644 18.2752 4.55231 34.317075 2.551485
2008-08-18 08:37:37 51°10.245 2°42.652 18.2728 4.551895 34.31489 2.586309
2008-08-18 08:37:42 51°10.242 2°42.659 18.2731 4.551895 34.31489 2.586309
2008-08-18 08:37:47 51°10.238 2°42.667 18.271 4.551584 34.312921 2.655957
2008-08-18 08:37:52 51°10.234 2°42.675 18.2711 4.551168 34.310737 2.690782
2008-08-18 08:37:57 51°10.23 2°42.683 18.267 4.550753 34.308552 2.76043
2008-08-18 08:38:02 51°10.226 2°42.691 18.2632 4.550338 34.306367 2.76043
2008-08-18 08:38:07 51°10.222 2°42.699 18.2608 4.550026 34.305059 2.830078
2008-08-18 08:38:12 51°10.218 2°42.707 18.2579 4.550026 34.305059 2.830078
2008-08-18 08:38:17 51°10.214 2°42.715 18.2581 4.549611 34.303536 2.864902
2008-08-18 08:38:22 51°10.209 2°42.723 18.2547 4.549195 34.30135 2.864902
2008-08-18 08:38:27 51°10.205 2°42.73 18.2494 4.548676 34.298288 2.969374
2008-08-18 08:38:32 51°10.201 2°42.737 18.2468 4.548157 34.295226 3.004198
2008-08-18 08:38:37 51°10.197 2°42.744 18.2459 4.547638 34.293486 3.10867
2008-08-18 08:38:42 51°10.193 2°42.75 18.242 4.547638 34.293486 3.10867
2008-08-18 08:38:47 51°10.189 2°42.756 18.2386 4.547015 34.290869 3.178318
2008-08-18 08:38:52 51°10.186 2°42.762 18.2358 4.546392 34.28759 3.247966
2008-08-18 08:38:57 51°10.182 2°42.768 18.2321 4.545873 34.28585 3.317614
2008-08-18 08:39:02 51°10.178 2°42.774 18.2318 4.54525 34.283893 3.352439
2008-08-18 08:39:07 51°10.174 2°42.779 18.2278 4.544523 34.280398 3.456911
2008-08-18 08:39:12 51°10.171 2°42.784 18.2291 4.544523 34.280398 3.456911
2008-08-18 08:39:17 51°10.167 2°42.789 18.2247 4.5439 34.277779 3.491735
2008-08-18 08:39:22 51°10.164 2°42.793 18.2219 4.543174 34.273622 3.561383
2008-08-18 08:39:27 51°10.161 2°42.797 18.2209 4.542551 34.271664 3.631031
2008-08-18 08:39:32 51°10.158 2°42.801 18.2172 4.541928 34.269045 3.665855
2008-08-18 08:39:37 51°10.155 2°42.803 18.2185 4.541512 34.267519 3.735503
2008-08-18 08:39:42 51°10.153 2°42.806 18.218 4.541512 34.267519 3.735503
2008-08-18 08:39:47 51°10.151 2°42.807 18.2163 4.540993 34.265777 3.735503
2008-08-18 08:39:52 51°10.149 2°42.808 18.215 4.540474 34.263374 3.805151
2008-08-18 08:39:57 51°10.147 2°42.808 18.2124 4.539955 34.261631 3.839975
2008-08-18 08:40:02 51°10.146 2°42.808 18.2108 4.53954 34.260105 3.839975